GFSNE_850_thetae_000.txt.gz
Theta_e
295 296 297 297 296 296 296 296 296 296 297 297 299 300 302 309 311 313 313 312 313 312 310 309 310 315 315 315 316 316 314 310 310 311 310 308 307 304
294 295 296 296 296 295 295 295 296 296 296 296 297 301 301 300 309 309 314 315 314 312 310 310 308 309 311 312 311 314 315 314 313 311 309 308 307 301
293 294 295 295 296 295 295 295 295 295 296 296 297 297 301 300 302 306 309 310 314 314 311 310 310 308 308 308 310 312 315 314 313 310 308 308 303 297
292 292 293 294 295 294 294 294 294 294 295 296 297 297 297 294 293 296 304 305 309 313 313 311 309 309 306 305 307 310 313 312 312 310 307 304 298 296
291 291 292 292 293 293 294 294 293 293 294 294 295 296 297 298 296 296 298 302 305 308 314 313 312 308 306 304 306 310 312 312 312 308 304 299 297 295
288 288 289 291 292 293 293 293 293 294 294 294 294 295 296 298 297 294 302 300 302 307 309 312 313 310 306 307 308 310 312 311 308 305 303 302 299 301
286 286 287 287 288 289 291 292 293 293 294 294 295 295 296 297 296 296 299 302 303 305 307 308 308 309 308 310 310 312 311 308 305 304 303 301 301 300
284 285 285 286 286 286 287 289 291 292 292 293 294 295 296 297 298 296 298 300 302 304 306 306 306 308 308 309 310 309 305 305 305 304 302 301 299 293
284 285 286 286 286 287 287 287 288 289 290 291 293 294 295 296 297 297 298 298 301 303 304 303 302 302 304 309 309 307 307 303 303 301 301 297 293 291
284 284 285 285 286 287 287 287 287 289 288 288 290 293 295 296 296 297 298 297 299 299 302 300 300 297 300 305 305 304 302 301 301 301 301 293 290 289
284 285 285 285 285 286 286 286 287 287 288 289 289 291 293 294 296 297 297 297 298 298 297 297 297 295 295 295 298 298 299 300 298 296 291 287 286 286
285 285 286 286 286 286 286 285 286 287 289 289 290 290 290 292 295 295 297 297 296 295 296 295 295 294 290 289 290 291 294 289 286 286 287 285 285 285
286 286 287 287 287 287 287 286 286 287 288 289 289 289 290 290 292 295 296 296 297 297 297 295 293 292 291 287 287 286 288 286 286 286 284 283 283 283
286 286 286 286 287 287 287 287 286 286 287 289 289 289 289 289 290 293 295 295 296 296 297 297 297 295 294 287 285 285 285 285 285 285 283 283 283 282
285 285 285 285 287 288 287 287 287 286 287 287 290 290 289 289 290 292 293 294 295 295 295 295 295 296 294 291 288 285 284 284 283 282 281 282 284 283
284 284 284 285 287 288 288 288 287 286 287 288 289 290 291 291 291 292 292 293 294 293 293 294 293 293 290 289 288 284 282 283 282 281 282 284 282 281
284 284 284 284 286 288 288 287 287 287 287 289 290 290 290 289 290 293 293 292 293 291 289 288 287 287 287 287 285 285 283 283 283 283 283 280 280 279
284 283 283 283 284 284 287 288 287 287 287 288 288 288 290 290 291 291 292 292 292 290 287 285 284 284 284 284 284 284 281 281 280 280 280 279 278 278
283 283 282 282 281 282 283 284 286 287 287 288 288 288 288 288 289 288 287 287 287 285 283 283 283 282 282 282 281 280 280 279 279 279 279 279 279 278
283 282 282 281 281 281 281 282 282 283 284 285 285 285 285 284 284 283 283 284 284 282 282 282 282 283 284 280 280 279 279 278 279 278 278 277 277 277
283 282 282 281 281 281 280 280 280 281 281 282 282 282 282 282 282 282 282 282 281 281 281 281 281 282 283 284 281 278 278 278 277 277 277 277 277 276
282 282 282 283 282 280 280 280 281 280 280 280 281 281 281 282 282 282 282 281 280 280 278 279 279 279 279 279 278 277 277 277 277 276 276 277 277 277
282 282 282 281 281 281 282 281 280 279 280 281 282 282 283 283 283 281 280 280 279 278 277 277 277 277 277 278 278 276 277 275 274 275 275 275 275 275

GFSNE_850_thetae_003.txt.gz
Theta_e
295 295 296 296 297 298 299 300 299 299 299 299 299 300 301 302 302 308 314 315 316 316 318 316 315 314 314 320 318 315 306 304 304 303 303 304 308 310
294 294 295 295 296 297 298 298 299 298 298 298 298 298 300 302 304 304 307 311 314 316 316 317 315 314 313 315 319 317 313 308 305 304 303 304 307 310
293 293 293 294 295 296 296 297 298 298 297 297 297 297 298 301 302 304 305 307 311 309 314 314 315 315 313 311 317 318 316 312 307 305 303 304 308 309
291 292 292 293 294 294 295 296 296 297 297 296 296 296 297 298 299 300 301 298 300 306 307 313 313 314 313 312 311 314 315 315 310 309 306 307 310 310
290 291 291 292 292 293 294 294 296 296 296 296 296 295 295 296 299 300 300 300 294 301 306 305 309 313 313 314 311 311 312 315 314 313 312 311 311 309
289 289 289 290 290 291 292 293 294 295 295 295 295 295 295 295 297 299 299 299 295 294 303 306 306 309 311 312 313 311 311 312 314 313 313 312 310 308
287 286 287 287 287 287 289 290 292 293 294 294 295 295 295 296 296 297 299 299 296 296 298 301 304 305 309 311 312 312 310 311 313 312 313 312 309 306
284 284 285 285 285 286 286 286 287 289 291 292 294 295 295 295 296 297 298 297 297 297 301 301 303 303 303 308 309 310 309 309 312 312 313 310 305 301
284 284 285 285 286 286 286 286 286 287 288 289 291 293 294 295 296 296 297 298 297 297 301 302 302 302 300 305 309 307 308 307 311 312 310 307 303 305
284 284 285 285 285 286 286 287 287 287 287 287 288 290 292 294 295 296 297 298 297 297 298 301 300 301 303 301 302 307 308 309 311 309 302 302 304 301
284 284 285 286 286 286 286 286 286 287 288 287 288 288 289 292 294 294 296 298 297 296 297 299 299 299 297 300 299 297 302 306 308 301 301 302 300 300
286 286 286 286 286 286 286 286 286 286 286 287 288 288 289 290 292 291 292 296 296 295 295 296 297 296 293 292 295 294 297 298 300 300 300 299 300 300
285 285 286 287 287 287 287 287 287 287 287 287 288 288 289 289 290 290 292 294 296 296 295 296 296 295 293 290 291 292 293 293 294 294 298 298 298 293
284 284 285 286 286 286 286 286 287 287 287 287 288 288 290 290 290 291 292 294 295 295 295 295 296 296 294 290 288 287 290 290 289 290 289 290 287 285
285 285 284 285 285 285 286 287 286 286 287 287 288 288 289 290 290 290 291 292 294 295 295 295 295 296 295 294 293 288 286 286 288 290 287 285 284 283
284 285 285 285 285 287 289 289 288 286 287 287 287 289 290 290 290 290 291 292 293 293 293 294 294 294 293 292 292 288 286 286 285 285 286 284 284 283
285 285 285 285 286 287 289 288 287 287 287 287 288 289 291 291 290 290 290 290 291 291 291 291 290 290 290 290 288 287 286 285 284 284 284 283 284 285
284 284 284 284 284 285 288 288 287 287 287 288 289 290 290 290 290 290 290 290 291 290 291 289 289 287 287 285 286 287 285 284 284 283 284 285 284 285
284 283 283 283 283 283 285 287 288 288 288 288 289 289 289 289 289 289 288 288 289 290 288 287 287 287 285 283 282 283 284 283 283 282 283 283 283 282
283 283 282 282 281 282 283 284 286 288 288 288 289 288 288 288 288 287 286 286 286 286 285 284 284 285 285 283 282 282 282 281 282 283 282 280 281 280
283 283 282 282 281 281 281 282 283 284 284 285 286 286 286 286 286 286 285 285 285 284 283 283 283 284 285 284 283 281 280 280 280 280 279 279 279 280
283 283 282 282 282 281 281 281 281 282 282 283 283 283 283 284 284 283 283 283 282 282 282 282 282 283 283 283 281 280 280 279 279 280 279 279 279 278
281 282 282 282 282 281 281 281 281 281 281 281 282 281 281 282 281 282 282 282 282 281 281 281 281 281 280 280 280 280 279 278 278 278 278 278 279 279

GFSNE_850_thetae_006.txt.gz
Theta_e
293 294 294 295 296 297 296 296 297 298 299 300 300 299 299 299 302 302 301 300 303 314 315 316 317 318 321 319 318 317 316 314 312 311 311 311 308 308
292 293 294 294 294 295 295 296 297 298 299 298 299 299 299 298 298 300 301 302 301 303 311 315 316 316 318 319 317 317 317 315 314 310 307 307 308 307
291 292 292 292 292 292 294 294 295 296 297 297 298 298 298 298 296 297 299 300 301 302 306 307 311 313 316 316 317 317 316 317 315 312 304 306 306 305
291 291 291 291 292 292 293 293 294 295 295 296 297 297 298 297 296 295 296 300 300 299 299 303 307 307 313 313 317 317 316 317 316 314 303 302 303 304
290 290 290 290 291 291 292 292 293 293 294 295 295 296 296 297 297 296 295 296 298 299 300 299 296 300 307 312 309 317 318 315 315 316 305 303 303 303
289 289 290 290 290 290 290 291 291 291 292 293 295 295 296 296 296 296 295 294 295 298 298 298 296 295 305 307 307 308 315 317 316 315 312 309 306 305
288 288 288 288 288 288 288 288 288 289 290 291 292 294 295 295 295 295 295 296 296 297 297 297 297 295 301 303 304 305 308 316 316 315 313 310 307 307
286 285 284 284 284 285 285 285 286 286 287 288 289 291 293 295 295 295 296 295 296 296 298 297 296 296 297 303 303 306 305 310 315 313 316 312 310 309
284 284 284 284 284 285 285 286 286 286 286 286 286 287 289 291 294 295 295 295 296 297 297 296 295 297 300 299 301 303 304 306 313 313 314 314 312 311
285 285 285 284 284 285 285 285 286 286 287 287 287 286 287 288 290 294 294 295 296 296 297 297 296 297 300 301 302 303 304 304 309 313 312 312 313 312
286 286 286 286 286 286 285 286 286 286 286 287 287 287 287 287 288 289 292 293 294 296 297 297 296 296 297 299 300 301 303 303 307 311 313 312 312 312
285 285 285 285 285 286 286 286 286 286 286 286 286 287 287 288 288 288 289 289 291 293 295 296 296 295 295 296 298 299 301 302 302 306 312 311 311 306
284 285 285 285 285 285 287 287 287 287 286 286 286 287 287 287 287 288 288 289 290 291 295 296 296 295 295 293 294 295 297 298 298 298 306 309 306 303
284 284 284 285 285 285 285 286 286 286 286 287 287 287 287 287 288 288 289 290 290 291 293 295 295 295 294 293 291 292 294 295 296 297 297 298 299 298
284 284 284 285 285 286 286 286 286 285 286 286 286 287 287 287 289 289 290 290 291 291 293 295 294 295 295 295 295 291 291 292 294 296 295 294 294 294
284 285 285 286 286 286 287 289 289 289 287 286 286 287 287 288 289 290 290 292 292 292 292 294 295 295 294 293 294 293 291 292 291 291 292 291 291 291
284 284 284 284 284 285 288 288 287 287 287 286 287 287 287 288 290 291 290 291 290 290 291 292 293 293 292 292 290 291 290 290 290 291 291 291 288 289
284 283 283 283 283 284 286 288 288 287 287 287 287 288 289 290 290 291 290 290 290 290 291 291 292 290 289 288 288 289 287 287 287 287 287 287 286 285
283 282 282 282 282 283 285 286 288 288 287 287 288 289 289 290 290 289 289 289 289 289 290 291 291 289 288 286 284 285 288 286 286 285 285 285 286 286
283 283 282 282 282 282 283 285 286 288 288 288 289 289 289 289 289 288 287 288 288 288 288 288 287 287 289 287 283 283 283 285 285 285 284 283 284 284
282 282 282 282 281 282 282 283 284 285 286 287 288 288 287 287 287 286 286 286 286 286 285 285 286 286 286 286 284 282 282 282 283 283 282 282 281 281
281 281 281 282 281 281 281 282 282 283 283 284 284 285 285 286 286 286 285 285 285 284 284 284 284 284 285 285 284 283 281 281 280 280 280 281 280 280
281 281 280 280 281 281 281 281 281 282 282 282 282 283 283 284 284 284 284 283 283 283 283 283 283 283 283 283 283 281 280 279 279 280 280 280 280 280

GFSNE_850_thetae_009.txt.gz
Theta_e
291 291 292 292 292 292 292 293 294 295 296 296 296 296 295 297 299 299 299 300 303 303 301 301 303 313 315 316 318 318 316 317 317 316 313 312 313 313
291 291 292 291 292 293 293 294 295 295 295 295 295 297 298 298 298 299 298 298 298 299 300 301 300 302 309 314 316 316 319 316 318 317 316 312 312 315
291 291 291 291 291 291 292 292 293 293 293 293 294 294 294 295 295 296 298 298 297 297 298 299 300 300 303 307 310 313 316 319 318 318 316 315 312 313
290 290 290 290 290 290 290 291 291 291 292 292 292 293 294 295 295 295 296 297 297 295 296 298 299 299 299 299 303 310 313 315 315 318 317 315 313 312
289 289 289 289 289 289 289 290 290 290 291 291 292 293 293 294 295 295 295 296 297 296 295 296 296 297 298 298 297 302 307 312 315 318 316 316 314 311
289 289 289 289 289 289 289 289 289 290 290 290 290 290 291 291 293 294 295 296 296 296 295 294 293 294 295 296 296 296 299 304 308 314 317 316 316 313
287 287 287 287 287 287 287 286 286 286 287 287 288 288 289 290 291 293 295 295 295 295 295 295 294 294 296 294 295 296 294 302 303 308 311 314 316 315
286 286 286 285 285 286 285 285 285 284 285 285 286 286 287 288 289 292 294 295 295 295 295 294 294 295 295 296 296 296 294 298 304 304 307 311 314 315
284 285 285 286 286 286 285 285 285 285 285 285 285 285 286 286 287 288 290 292 294 295 295 295 294 295 295 296 296 295 295 298 303 304 306 308 313 315
285 285 285 285 285 286 286 286 286 286 285 285 285 286 286 286 286 286 287 289 292 293 294 295 295 295 296 296 296 294 297 299 300 302 305 306 308 314
284 284 284 286 285 285 285 285 285 285 286 286 285 286 286 287 287 287 287 287 288 289 292 294 295 295 296 296 295 296 299 298 302 301 304 302 306 312
283 284 284 284 284 284 285 285 285 285 286 286 286 286 286 286 287 288 288 288 287 289 290 291 293 295 296 296 294 296 298 300 301 303 304 305 305 309
284 284 284 284 284 284 285 285 285 285 286 286 286 286 286 286 286 287 287 288 288 288 289 291 292 293 295 295 294 295 297 298 300 302 304 304 304 307
284 284 285 285 285 284 285 285 285 285 285 286 286 286 286 287 287 287 287 287 287 288 288 290 291 292 294 295 294 293 295 296 297 299 301 301 299 301
284 284 284 285 285 286 286 286 286 286 286 285 285 286 286 286 286 287 287 287 288 288 289 289 291 292 293 294 294 293 294 294 295 296 297 297 297 296
284 284 283 283 284 284 285 287 288 288 288 288 287 286 285 286 287 287 288 288 289 289 289 289 290 291 291 293 293 294 293 293 292 294 295 296 296 294
283 282 282 282 283 285 287 288 287 287 287 287 286 286 286 286 287 288 289 290 290 290 291 291 292 292 290 292 293 292 292 291 290 291 292 291 291 293
283 282 282 282 282 284 286 287 287 287 287 286 286 286 286 287 288 288 289 290 290 290 291 290 291 290 289 290 289 290 290 289 289 290 290 291 290 291
282 283 281 281 282 283 284 286 287 288 287 287 287 287 288 289 289 290 290 290 289 290 290 290 290 291 292 290 288 288 288 288 288 288 288 289 289 288
281 281 281 281 281 282 283 284 286 287 288 288 289 288 289 289 289 289 289 289 289 289 289 289 289 290 290 292 289 286 285 286 286 286 285 286 286 286
281 281 281 280 280 281 282 283 283 284 286 287 288 288 288 287 286 287 288 288 288 288 288 288 288 288 289 288 286 285 284 283 284 285 285 284 284 284
280 281 280 280 280 280 281 281 282 282 283 284 285 286 286 286 286 286 286 286 286 286 286 286 286 286 286 286 286 284 283 282 282 282 282 283 282 282
279 280 280 280 280 280 280 280 280 281 281 282 282 283 284 285 286 285 285 285 285 285 284 284 284 284 284 285 284 283 282 281 281 281 281 280 281 282

GFSNE_850_thetae_012.txt.gz
Theta_e
291 290 291 291 291 291 292 292 293 294 294 294 295 295 295 295 297 297 297 298 298 298 298 301 302 302 301 303 312 315 316 318 317 318 317 315 314 313
291 291 291 291 291 291 291 291 291 292 292 292 292 292 292 292 291 294 298 298 299 299 298 298 297 299 300 300 302 307 313 316 316 317 318 317 313 313
291 291 290 289 290 290 290 290 290 290 291 291 291 292 292 292 292 293 292 294 297 297 297 297 296 296 297 299 300 301 304 310 314 315 317 317 316 313
288 288 288 288 289 289 289 289 289 289 289 289 290 290 291 291 292 293 293 294 292 292 296 297 297 296 297 297 298 299 299 300 307 312 313 316 317 316
288 288 288 288 288 288 288 289 289 289 289 289 289 289 289 290 290 290 291 292 293 293 294 295 296 296 295 295 295 296 297 297 298 305 312 311 317 316
288 288 288 287 287 287 287 287 287 287 287 287 287 288 288 288 288 289 290 290 291 292 294 295 296 296 295 295 293 294 294 295 296 296 304 310 311 316
286 286 286 286 286 286 286 286 285 285 285 285 286 286 286 286 287 288 288 289 290 291 293 294 295 295 294 294 293 294 294 293 294 295 295 304 310 310
284 284 284 284 285 285 285 285 285 285 285 284 284 285 285 285 285 286 287 288 291 292 293 294 295 295 295 294 294 293 294 295 296 295 296 295 301 310
283 284 284 284 285 285 285 285 285 285 286 285 284 284 285 285 285 285 286 287 288 289 291 293 295 295 295 294 294 293 294 295 295 295 296 294 299 303
284 284 284 284 284 284 284 285 285 285 285 285 285 285 285 285 285 285 286 286 286 286 288 290 292 294 294 293 294 294 294 295 296 296 294 295 297 304
283 283 283 284 284 284 283 284 284 284 285 285 285 285 285 285 285 286 286 286 286 286 286 287 289 291 292 293 294 295 295 296 295 294 295 299 300 303
284 284 284 284 284 284 284 284 284 284 285 285 285 285 285 286 286 286 286 286 286 286 287 287 288 290 291 292 292 294 295 295 294 293 298 298 300 301
284 284 284 284 284 285 285 284 284 284 284 285 285 285 285 286 286 286 286 286 286 287 288 288 288 289 290 292 293 295 295 295 294 297 298 300 300 300
284 284 284 284 284 284 285 285 285 285 285 285 285 285 285 286 286 286 286 286 286 287 287 287 287 289 291 291 292 294 294 294 293 294 295 299 301 302
284 283 282 282 282 283 284 284 285 285 286 286 286 286 285 286 286 286 286 286 287 287 287 287 287 287 287 289 291 291 293 293 293 295 296 296 299 301
283 282 282 282 283 284 286 287 287 287 286 286 286 287 286 286 286 286 286 287 287 287 287 287 288 288 288 290 291 292 292 292 293 293 294 293 296 298
283 282 281 282 283 284 286 287 287 287 286 287 287 286 286 285 286 286 286 287 287 287 288 289 288 289 288 289 291 292 292 291 292 291 291 291 292 295
282 281 281 281 282 283 284 286 286 287 287 286 286 286 286 286 286 286 287 287 288 288 289 289 289 288 289 290 291 291 291 290 289 289 289 288 288 289
282 281 280 280 281 282 283 284 285 286 286 286 287 287 287 288 288 288 288 288 288 289 289 288 289 290 290 290 291 290 289 288 288 287 287 287 287 287
281 281 280 280 280 281 282 283 284 285 286 286 288 288 288 288 289 289 289 289 289 289 289 288 290 290 290 290 290 288 288 287 286 286 286 286 286 286
280 280 280 280 280 281 281 281 282 283 284 286 286 287 287 287 287 287 288 288 288 288 289 288 287 287 288 288 288 286 284 284 284 285 285 285 284 283
280 280 280 280 280 280 281 281 281 281 282 283 284 285 286 286 286 286 286 286 285 286 286 286 286 286 286 287 287 285 284 282 282 283 283 283 283 282
279 279 280 280 280 280 280 280 280 280 281 281 282 283 284 285 285 285 285 285 284 284 284 284 284 284 285 285 285 284 283 281 281 282 282 282 282 282

GFSNE_850_thetae_015.txt.gz
Theta_e
292 292 291 291 291 291 291 290 291 292 291 291 291 291 291 291 291 291 290 295 297 298 299 298 298 299 300 301 302 303 311 314 316 316 318 318 317 314
292 292 291 291 290 290 289 289 290 290 291 290 290 290 290 291 291 292 291 290 292 297 298 297 297 298 298 297 298 300 302 306 315 315 315 318 317 316
291 291 289 288 287 287 287 288 288 289 289 289 289 289 289 288 288 288 289 289 290 290 293 296 296 297 296 296 297 298 299 300 303 311 315 316 318 317
289 288 287 287 287 287 288 288 288 288 288 288 288 289 288 288 288 289 289 290 291 291 292 291 293 294 297 297 296 297 298 298 298 301 310 313 313 317
288 287 287 287 287 287 287 287 287 287 287 287 287 288 288 288 288 288 288 287 288 288 289 291 292 293 295 296 297 297 295 295 295 297 299 306 312 313
286 286 286 286 286 286 286 286 285 285 285 286 286 286 286 286 286 286 287 287 287 288 288 289 290 292 295 296 296 295 295 294 293 294 296 297 303 310
286 285 285 285 284 284 284 284 284 285 285 285 285 285 285 285 285 286 286 286 286 287 288 289 290 291 294 295 295 295 294 293 293 293 293 295 297 301
284 284 284 284 284 284 284 284 285 285 285 284 285 285 285 285 284 285 285 285 286 286 287 288 290 291 292 293 295 295 294 294 293 294 295 295 295 297
283 283 283 283 283 283 284 284 284 284 284 284 285 285 285 285 285 284 284 285 285 286 288 289 290 293 293 294 295 294 294 294 293 294 294 295 295 295
283 283 283 283 283 283 283 283 284 284 284 284 285 285 285 285 285 285 285 285 285 285 286 286 287 288 292 294 295 295 294 293 293 293 294 295 295 295
283 283 284 284 284 284 284 284 284 284 284 284 284 284 284 285 285 285 285 285 285 285 286 286 286 287 287 292 293 293 293 293 293 294 295 295 295 295
283 284 284 284 284 284 284 284 284 284 285 284 284 284 285 285 285 285 285 285 285 285 286 286 287 287 287 289 290 292 291 292 293 295 294 294 293 293
283 284 284 283 283 283 284 283 283 285 285 285 284 284 284 285 285 285 285 285 286 286 286 286 287 287 287 288 290 291 292 294 295 295 294 293 294 295
284 284 283 282 282 282 282 283 283 284 285 285 285 285 285 285 285 285 286 286 286 286 286 286 286 287 288 288 288 290 291 291 293 294 293 294 294 295
284 283 283 282 282 283 284 284 285 285 286 286 286 286 286 286 286 285 285 286 286 286 286 286 286 287 287 287 287 289 289 290 291 293 292 293 294 296
283 283 281 281 283 284 285 286 287 287 286 286 286 286 286 285 285 285 285 286 286 286 286 286 287 286 286 287 287 287 288 290 291 292 292 293 293 294
282 282 281 281 282 283 284 285 286 286 286 286 286 286 286 285 285 285 285 286 286 286 286 287 287 287 287 287 287 287 288 289 291 292 291 291 291 291
282 281 280 280 281 282 283 284 285 285 285 286 286 286 286 286 286 286 286 286 286 287 287 288 288 287 287 287 287 288 288 290 291 291 289 289 288 289
281 281 280 280 280 281 281 282 283 285 285 286 286 286 287 287 287 287 287 287 287 288 288 288 288 288 287 286 288 288 289 290 289 288 287 287 287 288
280 280 280 280 280 280 280 281 282 283 285 286 287 287 287 286 286 287 287 288 288 288 288 287 286 286 287 288 287 287 289 287 286 286 286 286 286 286
279 279 280 280 280 280 280 280 281 281 282 284 285 286 286 286 285 285 286 286 287 287 287 286 286 286 286 287 287 285 284 284 283 284 285 285 285 284
279 279 279 280 280 280 280 280 280 281 281 282 283 283 284 285 285 285 285 285 284 285 285 285 285 285 285 286 286 284 283 283 283 283 283 283 284 284
278 278 279 279 279 279 280 280 280 280 280 281 281 281 282 283 284 284 284 284 284 284 284 284 284 284 285 285 284 282 282 281 282 282 282 283 283 283

GFSNE_850_thetae_018.txt.gz
Theta_e
295 294 293 292 292 291 291 291 290 290 290 289 289 289 289 289 288 288 289 289 289 290 294 298 300 298 298 300 302 304 305 307 312 315 317 321 320 318
292 292 291 291 290 289 288 288 287 288 288 288 288 288 288 288 288 288 288 288 288 288 289 293 296 297 297 300 299 300 301 303 306 304 314 316 320 319
291 290 289 288 287 287 287 287 287 288 288 288 288 287 287 288 288 287 287 287 287 288 288 289 290 293 295 298 296 298 299 299 304 303 308 315 315 317
290 288 287 287 287 287 287 287 287 287 287 288 287 287 287 287 287 287 287 287 287 287 288 288 289 291 293 294 296 296 297 298 298 301 300 305 313 314
287 287 286 286 286 286 286 286 286 286 286 286 286 286 286 286 286 286 286 286 286 287 287 287 288 288 290 292 293 296 296 297 297 296 298 299 306 314
286 286 285 285 285 285 284 284 284 284 284 284 284 285 285 285 285 285 285 286 286 287 287 287 288 288 288 289 292 294 296 298 297 295 295 296 298 302
285 285 284 284 283 284 283 284 284 284 284 284 284 284 284 284 285 285 285 285 286 286 286 287 287 288 288 289 291 294 297 298 295 295 295 294 295 297
283 283 283 283 283 283 283 283 283 284 284 284 284 284 284 284 285 284 284 284 284 285 286 287 286 287 288 289 290 292 295 295 295 295 294 293 293 294
283 283 283 283 283 283 283 283 282 283 283 283 283 284 284 284 284 284 284 285 285 285 285 285 286 289 289 291 291 292 294 295 295 294 294 293 294 294
282 283 283 283 284 284 284 283 283 283 283 284 284 284 284 284 284 284 284 285 285 285 285 285 285 286 287 288 290 293 294 295 295 294 294 293 293 294
283 283 283 284 284 283 283 283 283 284 284 284 284 284 284 284 284 284 284 284 284 284 285 285 285 286 286 287 288 290 294 295 295 294 294 293 293 293
282 283 283 284 283 283 283 283 283 284 284 284 284 285 285 284 284 284 284 284 284 285 285 285 285 285 286 287 288 290 292 293 293 293 293 293 294 295
282 283 283 283 283 283 282 282 282 282 282 283 284 284 285 285 284 284 284 284 285 285 285 285 285 286 286 287 287 289 290 290 292 292 293 294 294 294
282 283 283 283 282 282 283 283 283 284 284 284 284 285 285 285 285 285 285 285 285 285 285 285 285 286 286 286 286 287 289 290 290 292 293 293 294 294
282 282 282 282 281 282 284 284 285 285 286 286 286 285 285 285 285 285 285 285 285 285 285 286 286 286 286 286 286 287 288 289 290 290 290 292 292 292
282 282 282 281 281 282 284 284 285 285 286 285 285 285 286 285 285 285 285 285 285 285 286 286 286 286 286 286 286 287 287 287 288 289 289 291 292 292
281 282 281 281 281 282 283 284 284 285 285 284 285 285 285 285 285 285 285 285 285 285 286 286 286 286 286 286 286 286 286 287 287 287 289 290 291 291
281 281 280 280 280 280 281 282 283 284 284 285 285 285 286 286 286 286 285 285 285 285 286 286 287 286 286 286 286 286 286 287 288 288 289 290 290 289
281 280 280 280 280 279 280 281 281 282 283 285 286 286 286 286 286 287 286 286 286 287 287 287 287 287 286 286 286 287 287 287 288 288 288 288 288 288
279 279 279 279 279 279 279 280 280 281 282 283 284 285 286 285 284 286 286 287 287 287 287 287 286 286 286 286 286 286 286 287 287 287 287 286 286 286
278 279 279 279 279 279 279 279 279 280 280 281 282 283 284 285 284 284 285 284 285 286 286 286 286 285 285 286 285 284 285 285 286 285 285 284 284 285
278 278 278 278 279 279 279 279 279 280 280 280 280 282 282 283 284 284 284 284 284 285 285 285 285 285 285 286 286 285 283 283 284 283 283 284 284 284
277 278 278 278 278 278 278 278 279 279 279 279 279 280 281 282 282 283 283 283 283 283 283 284 284 285 285 285 284 283 282 282 282 282 282 283 283 283

GFSNE_850_thetae_021.txt.gz
Theta_e
295 295 294 293 293 292 292 292 292 292 293 292 291 291 291 291 291 291 291 289 288 288 289 289 291 298 300 299 299 302 303 302 307 313 315 314 317 317
292 291 291 290 290 289 289 290 290 290 289 289 290 290 290 290 289 290 290 289 287 287 288 288 289 290 297 298 297 299 301 303 303 306 308 313 315 316
291 290 289 289 288 288 289 289 289 289 289 289 289 289 289 289 289 289 290 290 289 288 287 288 288 288 289 294 296 299 299 300 301 301 303 306 310 314
290 288 287 287 287 288 288 288 288 288 288 288 288 288 288 288 289 289 289 289 289 289 288 287 287 288 288 289 294 296 297 297 299 299 299 302 305 308
287 286 286 286 286 286 286 286 286 286 286 286 287 287 287 287 287 287 288 288 288 287 286 286 287 287 287 288 289 293 295 296 297 298 298 299 302 305
286 286 285 285 285 284 284 284 285 285 285 285 286 286 286 287 287 287 287 288 288 288 287 287 287 287 287 287 288 289 293 295 296 297 297 297 298 300
284 284 283 283 283 283 284 284 285 285 285 285 285 285 286 286 286 286 287 287 287 287 287 287 288 288 288 288 288 288 289 292 294 296 297 297 298 296
283 283 283 283 283 284 284 284 284 283 284 284 285 285 285 286 286 285 285 286 286 287 286 287 287 288 288 289 289 288 288 289 291 295 298 297 296 295
282 283 283 283 283 283 283 284 284 283 283 283 283 284 284 285 285 285 285 285 286 286 286 286 286 286 287 287 288 288 288 289 291 296 299 296 295 295
282 282 282 283 283 283 283 283 283 283 283 284 283 284 284 284 285 285 285 285 285 285 285 285 286 286 286 287 287 288 290 291 291 294 296 296 295 294
282 282 282 283 283 283 283 283 283 283 284 283 283 284 284 284 284 284 284 284 285 285 285 285 285 285 286 286 286 287 289 290 292 294 295 295 295 294
282 282 282 283 283 283 283 283 282 283 283 283 283 283 284 284 284 285 285 285 285 285 286 286 286 286 287 287 286 287 287 289 291 294 295 295 294 294
281 282 282 283 283 283 282 282 283 283 283 283 283 283 284 284 285 285 285 284 285 286 286 285 286 286 286 287 288 287 287 288 291 293 293 294 294 293
281 282 282 282 282 282 282 283 284 284 285 285 285 285 285 285 285 285 285 285 285 285 285 286 285 286 286 287 287 288 287 288 290 291 292 292 292 292
281 281 281 281 281 281 282 283 284 285 285 285 285 284 284 285 285 285 285 285 285 285 285 285 285 285 286 286 287 287 287 288 289 290 291 291 292 293
281 281 281 281 281 281 282 283 284 284 284 284 284 284 285 285 285 285 285 285 285 285 285 285 285 285 286 286 286 286 287 287 288 289 289 289 291 291
280 280 281 281 281 281 281 282 283 284 284 285 285 285 285 286 285 285 285 285 285 285 285 286 286 286 286 286 286 286 287 287 286 287 287 288 289 290
280 280 280 280 280 279 279 280 281 282 283 284 285 285 286 286 286 286 286 285 285 286 286 286 286 286 286 286 286 286 287 287 286 287 287 287 289 290
279 279 279 279 279 279 279 279 280 281 282 283 284 284 285 285 286 286 286 286 286 286 286 286 287 287 287 287 287 286 286 286 286 287 287 288 289 289
278 278 278 279 278 279 279 279 280 280 281 281 282 283 284 284 283 285 285 286 286 286 286 286 286 286 287 288 286 286 286 286 286 287 287 288 289 289
277 277 278 278 278 278 279 279 279 279 280 280 281 281 282 283 283 284 284 284 284 284 284 285 286 286 286 286 285 285 285 285 285 286 287 287 286 286
276 277 277 277 277 277 277 278 279 279 279 279 280 280 281 282 282 283 283 284 284 284 284 285 285 284 285 285 284 284 283 283 284 284 285 285 284 285
275 275 275 276 276 276 277 277 277 278 279 279 279 279 280 281 281 282 282 283 283 283 283 283 284 284 284 284 284 283 283 282 283 283 283 283 283 283

GFSNE_850_thetae_024.txt.gz
Theta_e
293 293 293 293 293 292 292 292 292 294 295 296 296 296 295 294 294 294 294 294 293 291 288 288 289 289 290 292 298 301 301 301 300 300 303 308 314 317
294 293 293 293 293 292 292 292 292 292 292 292 292 292 292 292 292 292 292 291 291 291 289 287 288 288 288 289 293 300 300 299 300 300 300 302 308 313
293 293 292 292 291 291 291 291 291 291 291 291 291 291 291 291 292 292 292 292 292 291 291 289 288 288 288 288 289 293 299 299 298 299 301 301 302 307
291 290 290 289 289 290 290 290 290 290 290 290 290 290 291 291 291 291 291 291 291 291 290 290 289 287 288 288 288 288 293 297 297 299 299 301 300 302
289 289 289 289 289 289 288 288 288 288 288 288 289 289 289 289 289 290 290 290 290 290 290 289 289 288 287 287 287 288 288 293 296 298 298 299 300 299
288 288 288 288 288 287 287 287 287 287 287 288 288 288 288 289 289 289 289 290 290 290 290 290 289 289 289 287 287 287 287 288 292 296 297 297 299 299
287 287 286 286 285 284 284 285 286 287 287 287 287 287 287 288 288 288 288 288 289 289 289 289 290 290 291 290 289 288 287 287 288 291 295 296 297 298
286 286 285 285 285 285 284 284 284 284 285 285 286 286 287 287 287 288 288 288 288 288 288 289 288 289 289 290 290 290 290 290 288 288 290 295 296 297
286 285 285 285 285 285 284 284 283 284 283 283 284 285 286 286 286 287 287 287 288 287 287 288 288 288 288 288 288 289 289 289 288 288 288 290 294 296
285 284 284 284 284 283 283 283 284 284 285 285 285 285 285 285 285 286 286 287 287 287 287 287 287 287 287 287 287 287 288 288 289 288 288 289 290 294
283 283 283 283 283 283 283 284 284 285 285 284 284 284 284 284 284 285 286 286 286 287 287 287 287 286 287 287 287 287 287 287 288 289 290 289 291 295
282 283 283 283 283 283 283 284 284 284 284 284 284 284 284 284 284 284 285 285 286 287 287 287 287 287 287 287 288 288 288 287 287 289 290 291 292 295
282 283 283 284 283 282 282 282 282 282 284 284 284 285 285 285 285 285 285 286 286 286 287 287 287 287 288 288 288 288 288 288 288 288 290 291 294 295
281 282 282 282 282 282 282 281 282 283 284 284 285 286 286 286 286 286 286 286 286 286 287 287 287 287 287 288 288 289 289 288 288 289 289 291 293 294
281 281 281 281 281 281 281 282 283 283 283 284 285 286 286 286 285 286 286 286 286 286 286 286 286 287 287 287 288 289 289 289 288 288 289 291 293 293
280 280 280 281 280 280 280 281 281 282 283 283 283 284 286 286 286 286 286 286 286 286 286 286 286 286 285 286 287 288 288 289 289 288 289 290 290 291
280 280 280 280 280 280 280 280 280 281 281 282 284 284 285 286 286 286 286 286 286 287 287 286 286 286 286 286 287 287 288 288 288 288 288 289 289 290
279 279 279 279 279 279 279 279 280 280 280 281 283 283 284 285 286 286 286 286 286 287 288 288 287 286 286 286 286 287 288 288 288 288 287 287 289 290
278 278 278 278 278 278 277 278 279 279 279 280 281 282 282 283 285 285 286 287 287 287 287 288 287 287 288 289 289 287 287 287 288 287 287 287 287 289
277 277 277 277 278 277 276 276 277 278 278 279 279 280 282 282 283 283 284 285 286 287 287 287 287 287 288 288 289 287 287 286 287 287 287 287 287 288
276 276 277 277 275 275 275 276 276 277 278 278 278 279 280 281 282 282 283 284 284 285 286 285 285 286 286 286 286 285 286 285 286 286 287 286 286 287
275 275 275 274 274 275 274 275 276 276 277 277 278 278 279 280 281 281 282 283 283 283 284 283 283 284 284 285 285 284 283 283 284 284 285 285 286 288
272 272 273 273 274 274 274 274 275 275 276 277 278 278 278 279 280 280 281 282 282 282 283 284 283 283 283 283 284 283 282 282 283 283 283 283 284 284

GFSNE_850_thetae_027.txt.gz
Theta_e
295 295 295 294 294 294 293 293 293 295 295 297 297 298 298 298 297 297 296 296 295 294 294 293 291 290 290 291 292 292 292 293 296 298 298 298 298 301
294 294 294 294 294 294 293 292 291 292 293 294 294 294 294 294 294 294 294 294 294 293 293 293 292 289 288 288 289 290 291 292 295 299 300 300 300 300
293 293 293 293 292 292 292 292 293 292 292 292 291 292 292 292 293 293 293 293 293 293 293 292 292 291 289 288 288 288 289 290 292 297 300 299 299 299
292 291 291 290 290 290 291 291 291 291 291 291 291 291 291 291 292 292 292 293 292 292 292 292 291 291 290 289 288 288 288 288 289 292 298 299 299 299
290 290 290 290 290 290 290 290 290 290 290 290 290 290 290 290 290 291 291 291 291 291 291 291 291 290 290 289 289 288 288 288 288 288 292 297 298 299
289 289 289 289 289 289 289 289 289 289 288 288 289 289 289 290 290 290 290 291 291 291 291 291 291 291 290 290 290 289 287 287 288 288 288 291 296 298
287 288 288 288 287 287 286 286 286 287 287 288 288 289 289 289 289 289 289 290 290 290 290 290 291 291 291 291 291 291 290 288 288 287 288 288 290 296
287 287 288 288 287 287 286 285 285 285 285 285 286 287 287 288 288 288 288 289 289 289 289 289 289 289 290 290 290 291 291 291 291 290 288 288 288 290
286 287 287 287 286 286 286 285 284 284 284 284 284 285 286 286 286 287 287 288 288 288 289 289 288 288 288 289 289 289 290 290 290 290 290 289 288 288
285 285 285 285 285 284 284 284 284 285 285 285 285 285 286 286 286 286 287 287 287 287 287 288 287 288 287 288 288 288 287 287 288 289 289 289 289 288
283 283 283 284 284 284 284 284 284 284 285 286 285 285 284 284 284 284 285 285 287 287 287 287 287 287 287 287 287 287 287 287 287 288 288 288 289 288
282 282 282 283 283 284 284 283 283 284 285 284 284 284 285 285 285 285 284 285 285 286 286 287 288 288 288 288 287 287 288 288 288 288 287 288 288 289
281 282 282 283 284 283 283 283 282 282 283 283 284 285 286 286 286 286 286 286 285 286 286 286 287 288 288 288 288 289 289 289 289 289 289 288 288 289
280 281 282 282 282 282 282 282 281 282 283 284 284 285 287 288 287 287 287 287 287 287 287 288 288 288 288 289 289 288 289 288 289 289 288 289 288 289
280 281 281 281 281 281 281 281 281 282 283 284 284 285 286 286 287 287 286 286 287 287 287 287 287 287 287 288 288 288 289 289 289 289 288 289 290 289
279 280 281 281 281 281 281 281 282 282 283 283 284 284 285 286 287 287 287 287 287 287 287 287 286 286 286 286 287 287 287 288 289 289 289 288 289 290
279 280 280 280 280 280 280 281 281 281 282 282 283 284 285 286 287 287 287 286 287 288 288 288 287 286 286 286 286 287 287 288 288 289 289 289 289 290
279 279 279 278 278 279 279 280 280 280 280 281 282 283 283 284 285 286 287 287 287 287 288 288 289 287 286 286 286 287 287 288 288 289 289 288 288 289
278 278 278 277 277 278 278 278 279 279 279 280 281 281 282 283 284 284 285 286 287 288 288 288 288 289 289 289 289 288 287 287 288 288 289 288 287 288
277 276 276 276 276 277 277 277 278 278 279 279 280 280 281 282 283 283 284 284 285 286 287 287 287 287 287 287 287 287 287 287 287 287 288 288 287 288
275 275 275 275 275 275 275 276 277 278 278 278 279 280 280 281 282 282 283 283 284 285 285 285 285 285 285 286 287 286 286 286 286 286 287 288 287 287
274 274 274 274 274 274 275 275 276 277 277 277 278 279 280 280 281 281 282 283 283 284 284 284 284 284 285 285 286 285 284 283 284 285 285 286 287 287
273 273 273 273 273 273 274 274 275 275 275 275 276 278 279 280 280 281 281 282 282 282 283 284 284 284 283 284 284 284 283 283 284 283 284 284 285 286

GFSNE_850_thetae_030.txt.gz
Theta_e
296 296 296 295 295 294 294 293 293 293 293 294 295 295 296 298 298 298 298 297 297 297 297 296 295 294 292 293 293 293 292 292 292 293 294 295 296 297
293 293 293 293 293 293 293 293 293 293 292 292 292 292 293 293 294 294 294 295 295 296 295 295 294 294 293 292 291 291 291 290 290 291 291 293 295 297
293 293 293 292 292 292 291 291 292 292 293 293 292 292 292 292 292 292 293 293 293 293 293 293 293 293 292 292 291 289 289 289 289 289 290 290 295 297
291 290 290 290 290 290 290 290 291 291 291 291 291 291 291 291 291 291 291 292 292 293 293 293 293 292 292 291 291 291 289 288 288 288 288 289 290 296
289 288 289 289 289 289 289 289 290 290 289 290 289 289 289 290 290 290 290 291 291 291 291 292 292 292 292 291 291 290 290 290 289 288 288 288 289 289
288 286 287 287 288 288 289 288 288 289 288 288 288 288 289 289 289 290 290 291 291 291 291 291 291 291 291 291 291 290 290 290 290 289 288 288 288 288
287 285 286 287 287 288 288 287 286 286 286 286 286 287 287 288 289 289 289 289 289 290 290 291 291 291 291 291 291 291 291 291 291 291 289 288 288 288
285 284 286 286 287 287 287 287 286 285 285 285 285 284 285 285 286 287 287 287 287 287 288 288 288 288 288 289 290 290 290 290 291 291 291 291 289 288
284 284 284 285 285 285 285 285 285 284 284 284 284 284 284 285 285 285 286 286 286 286 287 288 288 288 288 288 288 288 289 289 289 290 290 291 290 290
282 282 282 283 283 283 283 284 284 285 284 284 285 285 286 286 286 286 286 287 286 286 287 286 286 287 287 287 287 287 287 288 288 288 288 289 290 290
281 281 282 282 282 282 283 283 283 283 284 284 285 285 285 285 285 285 285 285 284 284 285 286 287 287 287 287 287 287 287 287 287 287 287 287 287 288
281 281 281 281 282 283 283 283 283 283 283 283 283 284 284 284 285 285 286 285 285 285 285 285 285 286 286 287 288 288 288 288 287 288 287 287 287 287
280 280 281 281 282 282 282 282 282 282 282 282 283 284 285 286 286 287 287 287 286 286 286 286 286 286 286 287 287 288 288 287 288 289 289 289 289 288
279 280 280 281 281 281 281 282 281 281 282 283 284 284 285 286 286 287 287 287 286 287 287 287 287 288 288 288 288 288 288 288 289 289 289 289 289 289
278 279 280 281 281 281 281 282 282 282 283 284 284 284 285 285 286 287 287 287 287 287 287 287 287 287 287 287 287 288 288 288 288 289 289 289 289 288
279 280 280 280 280 280 281 281 282 282 282 283 283 284 285 285 286 288 287 286 286 287 288 287 287 287 286 286 286 286 286 287 287 287 289 288 287 288
279 279 279 279 279 279 279 280 281 281 281 281 282 283 283 284 285 286 287 287 287 287 287 288 288 288 287 286 286 286 286 286 287 287 288 288 288 289
278 278 278 278 278 278 278 278 279 279 280 280 281 282 282 282 283 285 285 286 287 288 288 287 288 289 288 287 287 287 286 286 287 287 288 289 289 288
277 277 277 277 277 277 277 277 278 279 279 280 280 281 281 282 283 283 283 284 285 286 287 288 288 288 288 287 288 288 287 287 287 287 288 288 289 288
276 276 276 276 276 276 276 277 277 278 278 279 279 280 281 282 282 282 283 283 284 285 286 286 286 286 286 286 286 286 287 287 287 287 287 288 288 288
275 275 275 275 275 275 275 276 276 277 277 277 278 279 280 281 281 282 282 283 283 284 284 284 284 284 285 285 286 285 286 286 286 286 286 287 288 287
274 274 274 274 274 274 274 275 275 276 276 276 278 279 279 280 281 281 281 282 282 283 283 283 284 284 284 285 286 285 284 284 283 284 285 286 287 287
273 273 274 274 274 274 274 274 274 274 274 275 276 277 278 278 279 280 280 280 281 280 282 284 283 284 284 284 284 284 283 283 283 283 284 284 285 286

GFSNE_850_thetae_033.txt.gz
Theta_e
294 293 293 293 293 293 293 292 292 293 292 292 292 292 292 292 294 297 297 297 298 298 298 297 298 299 299 299 297 294 293 293 293 294 294 294 295 295
293 293 293 293 292 292 292 292 292 292 292 292 291 291 292 292 292 292 295 294 294 295 295 295 295 295 295 295 295 294 293 291 291 291 292 292 292 293
292 292 292 291 290 290 290 290 290 290 291 291 291 290 290 291 291 292 293 292 293 293 294 293 293 293 293 292 292 292 292 291 290 290 289 289 291 291
291 291 290 288 287 287 289 289 289 289 290 290 290 290 289 290 290 290 290 291 291 291 292 293 293 293 293 293 292 292 292 291 291 290 289 288 288 289
289 289 288 287 286 285 287 288 288 288 288 289 289 289 289 289 289 288 288 289 289 290 290 291 291 292 292 292 292 292 291 291 291 290 290 289 289 288
288 287 286 286 285 286 287 287 288 288 288 287 286 286 286 287 287 288 289 290 290 290 290 291 290 291 291 291 291 291 291 291 290 290 290 290 289 289
287 286 285 284 285 286 286 287 287 287 287 286 286 285 285 285 285 286 288 288 289 289 290 291 291 291 291 291 291 291 291 291 290 290 290 290 290 290
284 283 283 283 284 284 285 285 285 285 286 286 285 285 284 284 284 284 285 285 286 287 287 287 287 288 289 289 289 289 289 289 290 290 289 289 290 290
282 281 281 281 281 282 282 283 283 283 284 284 284 284 284 284 285 285 285 285 285 285 286 286 286 286 287 287 288 288 288 288 288 288 289 289 288 289
282 282 281 281 281 281 281 282 282 283 283 283 284 284 284 285 285 285 285 285 285 286 286 285 286 286 286 286 287 287 287 287 287 287 288 288 288 288
282 281 280 280 280 281 282 282 283 283 283 283 284 284 283 283 285 285 285 284 284 285 285 285 285 285 286 286 287 287 287 287 287 287 287 287 287 287
280 280 279 280 280 281 282 282 281 282 282 282 282 283 283 283 283 284 284 284 285 285 286 286 286 285 285 285 286 286 287 288 288 288 288 287 287 287
279 279 279 279 280 281 281 281 281 281 281 281 282 283 284 284 285 286 287 287 287 287 287 287 286 286 285 285 286 286 287 287 288 288 288 288 289 289
278 279 279 280 281 281 281 281 282 282 282 282 283 284 284 285 285 285 286 286 287 287 287 286 287 287 287 287 287 287 287 287 288 288 288 288 289 289
278 279 280 280 280 280 280 281 281 282 282 282 283 283 284 285 285 286 287 287 286 286 287 287 287 287 287 287 287 287 287 287 288 288 288 287 288 289
278 279 279 279 279 279 279 280 280 281 281 281 282 282 283 284 285 285 286 287 287 286 287 287 287 287 287 287 286 286 286 286 286 287 287 286 287 288
278 278 278 278 278 278 278 279 279 279 280 280 281 281 282 283 284 285 285 286 286 287 287 287 288 288 288 288 287 286 286 286 286 286 286 287 287 288
277 277 277 277 276 277 277 278 278 278 279 279 280 280 281 282 283 283 284 284 285 286 287 288 288 288 288 288 287 287 287 286 286 286 287 287 288 289
276 276 276 276 276 276 276 276 277 277 278 279 279 280 281 282 282 282 282 283 284 285 286 286 286 286 286 286 286 286 286 287 287 287 286 287 287 288
275 275 275 275 275 275 275 275 276 276 277 278 279 280 280 281 281 282 282 283 283 284 284 284 284 284 285 285 285 286 286 286 286 286 287 287 287 287
274 274 274 274 274 274 274 275 275 275 276 277 278 279 279 280 280 281 281 282 282 283 283 283 284 284 284 285 286 285 285 285 284 285 285 286 286 287
274 273 274 274 273 274 274 274 274 274 274 276 277 278 278 279 279 280 280 280 280 280 282 283 283 284 283 284 285 284 284 283 283 283 284 285 286 287
275 273 273 273 273 273 273 273 273 273 273 274 276 277 277 278 278 279 279 279 279 279 281 283 283 284 283 283 284 283 283 283 283 283 283 283 284 285

GFSNE_850_thetae_036.txt.gz
Theta_e
293 293 293 293 292 292 292 292 292 292 292 292 291 290 290 291 291 292 292 293 297 299 298 300 296 296 296 297 298 298 298 297 296 295 295 296 296 296
293 293 292 292 292 291 290 289 290 290 291 290 290 290 290 290 290 291 292 292 293 294 294 296 297 296 296 296 297 300 301 296 295 293 293 292 293 294
291 291 291 291 289 289 289 287 287 288 289 289 289 289 289 289 290 290 290 290 291 291 293 294 295 294 294 293 293 293 293 294 293 293 292 292 291 292
290 289 289 288 288 288 287 286 285 287 288 288 288 288 288 289 289 289 289 289 289 289 290 291 293 293 293 293 293 293 292 292 292 292 291 291 290 290
288 287 287 286 286 286 285 285 285 286 287 288 287 287 287 287 286 287 287 288 288 288 289 290 291 291 291 291 292 292 292 292 291 291 291 291 290 290
286 285 285 285 284 284 285 285 286 286 287 287 287 287 286 286 285 285 285 285 287 288 290 290 290 290 290 290 290 291 291 291 291 291 290 290 290 290
285 284 283 282 281 282 284 284 284 285 285 286 286 286 286 285 285 285 284 284 285 287 288 290 290 290 290 290 290 291 291 291 291 291 291 290 290 290
283 283 282 282 281 281 281 282 282 283 283 283 284 284 284 284 284 284 284 284 284 285 285 287 288 288 289 289 290 290 290 290 291 291 290 290 290 290
283 282 282 281 281 280 281 281 281 282 282 283 283 284 283 284 284 284 284 285 285 285 285 285 285 286 286 286 287 287 288 288 288 288 288 288 288 288
282 281 281 280 279 280 280 281 282 282 282 282 283 283 283 283 284 284 284 285 285 285 285 285 285 285 285 286 286 286 286 287 287 287 287 287 287 287
281 280 279 279 279 279 280 281 281 281 281 281 282 282 283 283 284 283 283 285 285 285 284 284 286 286 286 285 285 286 286 286 286 287 287 287 287 287
278 278 279 279 279 280 281 281 281 281 281 281 281 282 282 282 282 283 283 283 284 284 286 286 286 286 286 285 285 286 287 286 287 287 287 287 287 287
278 278 279 280 280 280 281 281 281 281 282 282 282 282 283 284 284 284 285 285 286 285 286 286 286 286 286 286 286 286 286 287 288 288 287 287 287 288
278 279 279 279 279 280 280 280 281 282 282 282 283 283 283 284 284 285 285 286 286 286 286 286 286 286 286 286 286 287 287 287 287 287 287 288 288 288
278 278 278 279 279 279 279 280 280 281 281 282 282 282 283 284 284 285 286 287 287 286 286 287 287 287 286 286 286 286 286 286 286 287 287 287 287 287
278 278 278 278 278 278 278 279 279 279 280 280 281 281 282 283 284 284 285 286 286 286 286 287 287 287 287 287 287 287 286 286 286 286 287 288 287 286
277 277 277 277 277 277 277 278 278 278 279 279 280 281 281 282 283 284 284 285 285 286 287 287 287 287 287 287 287 287 287 287 286 286 286 286 286 286
276 276 276 276 276 276 276 277 277 277 278 279 279 280 281 282 282 283 283 283 284 285 286 286 286 287 287 287 287 287 287 287 287 286 286 286 287 287
275 275 275 275 275 275 275 275 276 276 277 278 279 280 281 281 281 282 282 283 283 284 285 285 285 285 285 286 286 286 286 286 286 287 286 286 286 287
274 273 274 275 274 274 274 274 275 275 276 277 278 279 280 280 281 281 281 282 282 283 283 284 284 284 284 284 285 285 285 285 285 285 286 286 286 287
275 273 273 274 274 273 274 274 273 273 274 276 277 278 279 279 280 280 280 280 281 281 282 283 283 283 283 283 284 285 284 284 284 284 284 285 285 286
276 274 273 273 273 273 273 273 273 273 273 275 276 277 277 278 278 279 279 279 279 279 280 282 283 283 283 283 284 284 283 283 283 283 283 283 284 285
276 275 274 273 273 273 273 273 273 273 273 274 275 275 275 277 277 277 278 278 278 279 280 282 283 283 283 283 284 283 283 283 283 283 283 283 283 284

GFSNE_850_thetae_039.txt.gz
Theta_e
292 292 292 292 292 292 291 289 290 289 289 289 289 289 289 289 289 290 290 291 292 292 296 298 299 300 301 300 300 299 298 297 297 298 299 299 299 297
291 291 290 291 292 290 290 289 288 288 287 287 287 288 288 289 289 289 289 290 290 290 291 294 295 297 298 298 297 295 295 296 296 297 297 298 298 297
289 290 289 289 289 289 288 287 287 286 285 286 286 286 287 287 288 288 289 289 289 289 289 290 293 294 295 296 296 296 295 295 294 293 294 295 296 296
288 288 288 287 287 286 285 285 285 285 285 285 285 287 288 287 287 287 287 286 288 288 288 288 290 291 293 294 293 293 293 293 293 292 293 293 292 293
287 287 286 285 284 284 283 283 284 285 285 286 286 287 287 287 287 286 286 286 285 287 288 289 290 290 291 291 293 293 293 293 292 292 291 291 291 291
286 285 284 284 283 282 282 282 283 284 284 285 285 285 286 286 286 286 286 285 285 285 286 288 289 290 290 290 290 291 291 292 291 291 291 291 291 290
284 284 283 282 282 281 281 281 281 281 282 283 283 284 284 285 285 285 285 284 284 284 284 285 288 289 289 289 289 289 290 290 290 291 291 291 290 290
283 283 282 282 281 281 281 280 280 281 281 281 282 282 283 283 284 284 283 283 284 284 285 285 285 287 288 289 289 289 290 290 290 291 291 290 290 290
282 281 281 280 280 280 279 280 280 281 281 281 282 282 282 282 283 283 283 283 284 284 284 285 285 285 285 286 287 287 288 289 290 290 290 290 290 290
280 279 279 279 279 279 279 280 280 281 281 281 281 281 282 283 283 283 283 284 283 284 285 284 285 285 285 285 286 286 286 286 287 287 288 288 288 288
280 280 279 279 279 279 280 280 281 281 281 281 281 281 281 281 282 284 284 283 283 284 284 284 285 285 286 286 286 286 286 286 286 286 286 287 287 287
279 279 279 279 280 280 280 280 280 281 281 281 281 282 281 281 282 282 282 282 282 283 284 285 286 286 286 286 286 285 285 285 286 286 286 286 287 287
278 278 279 279 279 279 279 279 280 281 281 282 282 282 282 283 283 283 283 283 283 284 285 284 285 286 286 286 286 286 286 285 286 286 287 287 287 287
278 278 278 278 278 278 279 279 279 280 281 281 282 282 283 283 284 284 285 285 285 286 286 285 285 286 286 286 286 286 286 286 286 287 287 287 287 287
277 277 277 277 278 278 278 278 279 279 280 280 281 281 282 283 283 284 285 285 286 286 286 286 286 286 286 285 285 285 285 286 286 287 287 287 287 288
277 277 277 277 277 277 277 278 278 278 278 279 280 280 281 282 283 284 285 285 286 286 286 286 286 287 286 286 285 286 286 286 286 286 286 286 287 287
276 276 276 276 276 276 277 277 277 278 278 279 279 280 281 282 282 283 283 284 285 285 286 286 287 287 286 286 286 286 286 286 286 286 286 286 286 287
275 274 276 276 276 275 275 275 276 276 277 278 279 280 280 281 282 282 282 283 283 284 285 286 286 286 286 286 286 286 286 286 286 286 287 286 285 286
276 274 274 274 274 274 274 274 274 274 276 277 278 279 280 281 281 281 282 282 283 284 284 284 285 285 284 285 285 286 286 286 286 286 286 286 286 286
277 274 274 274 273 274 274 274 273 273 274 277 277 278 279 279 280 280 280 281 281 282 283 283 283 283 283 283 283 284 285 285 284 285 285 285 286 286
277 276 274 274 273 273 273 273 273 273 274 275 277 277 278 278 279 279 279 279 280 280 281 281 282 283 283 283 283 284 284 283 283 283 283 284 284 285
276 276 275 274 274 273 273 273 274 274 273 274 275 275 276 277 278 278 278 278 278 279 279 281 282 283 283 283 283 284 283 283 283 283 283 283 283 284
276 275 276 275 274 274 274 274 274 274 273 273 274 274 274 275 276 276 277 277 277 277 279 281 282 282 283 283 283 283 283 282 282 283 282 282 282 283

GFSNE_850_thetae_042.txt.gz
Theta_e
291 290 290 290 291 291 291 290 288 288 288 288 288 288 287 287 287 287 288 288 289 290 290 290 292 297 300 301 304 306 304 303 302 300 300 300 299 299
289 289 289 289 289 289 289 289 288 287 287 287 287 286 286 285 286 287 288 287 288 289 289 289 290 293 297 298 299 301 300 300 300 298 297 297 298 298
288 288 288 288 288 287 287 286 286 285 285 285 285 285 285 285 287 287 287 287 287 287 288 288 289 289 292 296 295 297 300 298 297 295 295 294 295 297
288 287 287 287 286 285 284 284 283 283 283 284 284 284 285 285 287 287 286 286 286 286 286 287 288 288 289 292 294 294 295 295 296 296 297 294 293 294
287 287 286 285 284 283 283 282 282 282 282 283 283 284 284 285 286 286 286 286 286 286 285 286 288 288 289 289 292 293 293 293 294 294 295 297 292 291
287 285 284 283 283 282 282 282 281 281 280 281 282 283 283 283 284 285 285 286 285 285 285 285 286 289 289 290 289 291 291 293 293 293 293 291 291 292
285 284 283 282 282 281 281 281 281 280 280 280 281 281 281 282 282 283 284 284 284 284 284 284 284 285 288 288 289 289 290 290 291 292 291 291 291 291
283 282 282 281 280 280 280 279 279 279 280 280 280 281 281 281 282 282 283 283 283 283 283 284 285 284 286 288 288 288 289 290 290 290 290 291 291 291
282 281 280 279 279 279 279 279 279 280 280 280 281 281 281 281 282 282 282 282 283 283 283 284 284 285 285 285 286 288 288 288 289 289 290 290 290 290
281 280 280 279 279 279 279 280 280 281 281 281 281 281 281 281 281 281 282 283 283 283 283 283 284 285 285 285 285 285 286 288 289 289 289 290 290 290
280 280 279 279 279 279 280 280 280 280 281 281 281 281 281 281 281 281 282 283 283 283 283 283 284 284 284 285 285 285 285 285 286 287 287 288 288 288
279 279 278 278 278 279 279 279 279 279 280 280 281 282 282 282 281 281 281 282 283 282 283 283 283 284 285 286 286 286 286 285 286 286 286 286 286 287
278 278 278 278 277 278 278 278 278 279 279 280 281 282 282 283 283 283 282 282 282 282 282 283 284 284 285 286 286 286 286 286 285 285 285 286 286 286
278 278 277 276 276 277 278 278 278 278 279 279 280 281 282 282 283 283 284 284 284 284 284 284 285 285 285 285 285 285 286 286 285 285 286 287 287 287
278 277 277 277 277 277 277 277 278 278 278 279 279 280 280 281 282 283 284 285 285 285 286 285 285 285 285 286 285 285 285 285 286 286 286 287 287 287
278 276 275 276 276 277 277 277 277 277 277 278 279 279 280 281 282 283 284 285 285 286 285 285 286 286 286 285 285 285 285 285 286 286 286 286 286 286
278 276 275 276 277 276 275 275 276 276 277 278 278 279 280 281 282 282 283 283 284 285 285 286 286 286 286 286 286 286 285 285 285 286 286 286 286 286
278 276 275 275 275 275 275 275 274 274 275 277 278 279 280 280 281 281 282 282 283 284 284 285 285 285 285 285 285 285 285 285 286 286 286 286 287 286
277 277 275 274 274 274 274 274 274 273 274 276 277 278 279 279 280 280 281 281 282 283 283 283 284 284 284 284 285 285 285 285 285 286 286 286 286 286
277 277 276 274 274 274 274 274 274 273 274 275 277 277 278 278 279 279 279 279 280 281 281 282 282 283 283 283 282 283 284 284 284 284 284 284 285 285
277 276 277 276 274 274 274 274 274 274 273 273 275 275 276 277 278 278 278 278 278 279 280 280 281 282 283 283 283 283 284 283 283 283 283 283 284 284
278 277 276 276 276 275 274 274 274 274 274 273 274 274 274 275 276 276 277 277 277 277 279 280 281 282 282 282 283 283 283 283 283 283 282 282 283 283
279 277 276 276 275 275 275 275 274 274 274 274 273 273 274 274 274 275 275 276 275 277 279 280 281 282 282 282 283 283 283 282 282 282 282 282 282 282

GFSNE_850_thetae_045.txt.gz
Theta_e
291 290 290 289 289 289 289 289 289 289 289 289 289 289 288 288 288 288 288 288 286 287 287 288 288 289 290 293 299 302 303 305 308 308 306 306 307 306
290 289 288 288 288 288 288 287 287 287 287 287 287 287 286 286 286 286 287 287 287 287 286 287 288 288 289 290 295 299 300 306 306 306 306 304 302 304
288 288 287 287 287 287 286 285 285 285 285 285 285 285 286 286 286 287 287 287 288 287 286 286 287 287 288 289 291 296 297 300 299 301 300 299 299 300
287 287 287 287 286 285 284 284 284 283 283 284 284 285 285 285 285 286 286 287 287 286 286 286 286 286 287 288 288 290 296 298 296 296 296 294 295 295
287 287 286 285 284 284 284 283 283 283 283 283 283 283 283 284 284 285 286 286 286 286 286 286 285 285 288 288 289 289 293 295 295 296 298 297 299 298
287 286 285 284 284 283 283 283 283 282 282 282 282 282 283 283 283 284 284 285 286 286 285 285 285 285 285 288 289 290 291 293 293 294 295 295 297 296
285 284 283 282 282 281 281 281 281 281 281 281 281 282 282 282 282 283 283 284 284 285 285 285 285 285 285 286 288 289 289 291 291 293 294 294 295 295
284 283 282 281 280 280 280 279 279 279 280 281 281 282 282 282 282 283 283 283 283 284 285 285 285 286 286 286 288 288 289 289 290 290 292 292 292 292
283 282 281 280 280 279 279 279 280 280 280 281 281 281 282 282 282 282 283 283 283 283 284 284 285 285 285 285 285 287 288 289 289 290 290 290 290 291
282 281 280 279 279 278 279 280 280 280 280 280 281 281 281 282 282 282 282 282 282 283 283 282 284 285 285 285 285 285 287 288 288 289 290 290 290 290
281 280 279 278 278 278 279 279 279 279 280 280 280 280 282 282 282 282 282 282 283 284 284 283 283 285 285 284 284 285 285 285 287 289 289 289 289 290
280 279 278 278 277 278 278 278 278 279 279 279 279 280 281 282 282 282 282 282 282 284 284 283 284 284 286 286 286 286 286 285 285 285 286 287 288 288
279 279 278 278 277 277 277 277 278 278 278 278 279 280 280 281 282 283 283 283 282 283 283 283 284 284 285 286 286 285 286 286 286 286 286 285 286 286
278 278 277 276 277 277 277 277 277 278 278 278 278 279 279 280 281 282 283 284 284 284 283 283 283 284 285 285 286 286 286 286 286 285 285 286 285 286
278 278 277 276 277 277 276 276 277 277 277 277 277 278 279 280 281 282 283 284 285 285 285 285 284 284 285 285 286 286 286 285 286 286 285 285 286 286
278 278 277 275 276 276 275 275 275 275 276 277 278 279 280 281 282 282 283 284 285 285 286 286 285 285 285 286 285 286 285 285 285 286 286 286 286 287
278 278 277 276 276 276 275 275 274 274 275 277 278 279 280 280 281 282 282 283 284 284 285 285 285 286 286 286 286 286 286 286 285 285 286 286 286 286
279 278 278 276 275 275 275 275 274 274 274 276 277 278 279 279 280 280 281 282 282 283 284 284 285 286 285 285 285 285 285 285 285 285 286 286 286 286
279 277 278 277 275 275 275 274 274 274 274 275 276 277 278 278 279 278 279 279 280 281 281 283 283 284 285 286 284 285 284 285 285 285 285 285 286 285
279 278 277 277 276 275 275 274 274 274 274 274 274 275 275 277 277 278 278 278 279 279 280 281 281 282 282 283 283 283 284 284 284 284 284 284 284 285
280 279 278 277 277 276 276 275 274 274 274 274 274 274 274 275 276 276 277 277 277 277 279 280 280 282 282 282 283 283 283 283 283 283 283 283 283 283
280 279 278 277 276 276 275 276 276 275 274 274 273 274 273 273 274 275 275 276 275 277 279 280 281 282 282 282 283 283 283 283 283 283 282 282 283 283
281 280 279 278 277 276 276 275 275 275 275 274 273 273 273 273 273 273 274 274 275 277 279 280 281 282 282 282 282 283 282 282 282 282 282 282 282 282

GFSNE_850_thetae_048.txt.gz
Theta_e
295 294 293 292 291 291 290 290 290 290 290 289 289 289 289 289 289 289 288 288 288 288 287 287 287 286 287 287 288 290 295 299 299 304 309 311 313 311
294 292 291 291 290 289 289 289 288 288 288 288 288 288 288 288 288 288 288 288 288 288 288 287 287 286 286 287 287 289 292 297 301 302 307 309 310 309
292 291 290 289 289 288 288 288 287 287 287 287 287 287 287 287 287 288 288 288 288 288 288 288 287 286 286 286 287 288 289 293 298 303 306 307 307 308
291 290 289 289 288 287 287 287 287 286 286 286 286 286 286 286 286 286 286 286 287 288 288 287 287 286 286 286 286 287 288 290 295 297 302 305 302 307
289 289 288 287 287 287 287 286 286 286 285 285 285 285 285 285 285 285 285 286 286 287 287 287 286 286 286 285 286 287 288 289 293 296 296 298 297 302
289 288 287 286 286 286 285 284 284 284 284 284 284 283 284 284 284 284 285 285 286 286 287 287 286 286 286 285 285 286 288 289 293 294 296 296 295 297
287 286 285 284 283 282 281 282 282 282 282 282 282 283 283 284 284 284 284 284 285 285 285 286 287 287 287 287 287 286 288 289 291 293 293 294 296 296
285 284 284 283 282 281 281 280 280 280 281 281 282 283 283 284 284 284 284 284 285 285 285 286 286 287 287 288 288 287 289 289 290 291 292 293 294 295
284 283 283 282 282 282 281 280 281 282 282 281 281 282 283 284 284 284 284 284 284 285 285 285 286 286 286 287 287 286 288 288 289 289 291 292 293 292
283 283 282 282 282 280 279 280 281 281 281 281 281 281 282 282 282 282 283 284 284 284 284 284 285 285 286 287 287 286 285 288 288 289 290 290 291 291
283 283 281 281 280 278 278 279 280 280 280 280 280 280 280 281 282 283 283 284 284 285 284 285 285 285 286 286 286 287 285 285 288 288 289 290 290 290
283 282 281 280 279 277 278 278 279 280 279 279 280 281 281 282 283 283 283 284 284 285 284 285 285 285 286 287 287 287 286 285 285 287 288 288 289 290
282 282 281 280 277 278 277 277 278 277 278 279 279 280 281 282 282 282 283 283 284 285 284 285 285 285 286 287 288 287 288 288 286 286 285 286 288 289
281 281 280 279 277 278 278 277 276 277 278 278 279 279 280 280 281 281 282 283 284 285 285 284 284 285 286 287 288 288 287 287 287 288 288 287 285 286
280 279 279 279 277 277 277 276 277 277 277 278 278 279 279 280 281 282 283 284 285 285 285 285 284 285 285 287 288 288 288 287 287 287 286 287 287 287
280 280 279 279 277 277 278 278 277 276 275 277 277 278 278 280 281 282 283 283 285 286 286 285 285 285 285 286 287 287 287 287 286 286 286 286 288 288
280 279 279 279 278 278 278 277 277 276 275 276 276 277 278 279 280 281 282 283 284 285 285 286 286 286 286 286 287 288 287 287 287 287 286 286 287 287
280 280 280 279 278 278 277 277 277 276 274 275 276 276 277 277 278 280 280 281 282 283 284 284 285 287 286 286 286 287 287 287 286 286 286 286 287 287
280 281 280 279 278 278 277 277 276 275 275 274 275 275 276 276 278 278 279 280 281 282 283 283 284 285 287 288 285 285 286 285 285 286 285 286 286 286
281 280 280 279 278 278 277 276 276 276 275 274 274 274 275 275 277 278 278 278 279 280 282 283 283 283 284 284 284 284 284 284 285 285 285 284 284 285
282 281 280 279 279 278 277 276 276 276 276 275 274 274 274 274 276 276 277 277 278 279 280 281 281 281 282 283 284 284 283 283 284 284 283 284 285 285
282 281 281 280 279 278 277 276 276 275 275 275 274 274 274 274 275 275 276 276 277 278 279 279 281 282 282 283 285 283 283 283 283 283 283 283 284 286
281 281 281 280 279 278 277 277 276 275 275 276 275 274 274 274 273 274 275 275 276 277 278 280 281 282 282 282 283 284 283 282 282 282 282 282 282 282

GFSNE_850_thetae_051.txt.gz
Theta_e
296 296 295 295 294 293 292 291 291 291 290 290 290 290 289 289 289 289 289 289 289 288 288 287 287 287 287 287 286 286 287 288 290 293 297 297 305 312
296 295 294 293 292 291 291 291 290 290 290 289 289 289 288 288 288 288 288 288 288 289 289 289 288 289 288 287 286 286 286 287 289 291 298 298 299 308
294 294 293 292 291 291 290 289 289 289 289 288 288 288 288 288 287 287 287 288 288 287 287 288 288 289 288 287 286 285 286 286 288 290 295 299 301 306
293 293 292 291 290 290 289 289 288 288 288 288 287 287 287 287 286 286 286 286 287 287 287 287 288 288 288 287 286 285 285 286 287 288 292 298 302 306
291 291 290 290 289 288 288 288 287 287 286 286 286 286 286 285 285 285 285 286 286 286 286 286 287 287 287 287 286 285 285 285 287 288 290 296 298 304
291 290 289 288 287 286 285 284 285 285 285 285 285 285 284 284 284 285 285 285 286 286 286 286 287 287 287 286 286 286 285 285 287 289 290 294 297 297
290 288 287 286 285 283 283 283 283 283 283 283 283 283 283 284 285 285 285 285 285 285 285 285 286 287 287 288 288 288 287 285 286 289 292 293 295 296
288 287 286 285 285 283 283 282 282 281 282 282 283 283 284 283 284 284 284 285 285 284 285 285 286 286 287 288 289 288 288 287 287 288 291 292 293 295
287 286 286 285 284 284 283 282 281 281 282 281 282 282 283 283 283 283 283 283 284 284 285 285 285 285 286 287 287 287 287 287 288 289 290 291 292 293
286 286 285 284 283 282 281 280 281 281 281 282 282 282 282 281 281 281 282 283 283 284 284 285 284 285 285 286 285 286 286 286 286 288 289 290 291 292
285 285 284 283 282 281 278 279 280 280 281 281 280 280 280 280 281 282 282 284 284 285 285 285 285 285 285 285 286 287 286 286 285 288 288 289 290 291
284 284 284 283 282 280 277 278 279 280 279 279 279 280 281 282 282 283 283 284 285 285 285 286 285 286 286 287 286 286 287 286 285 285 288 288 289 290
283 284 284 283 281 279 278 278 278 276 277 279 280 280 281 281 282 282 282 282 283 284 285 285 285 286 286 287 288 288 288 288 287 285 285 288 288 289
282 283 283 281 280 278 278 278 277 278 279 279 280 280 280 281 281 281 282 283 284 284 285 285 285 285 286 286 288 288 288 288 288 288 287 285 286 288
282 281 281 281 280 280 279 279 279 279 278 278 279 279 280 280 281 282 283 283 284 285 286 285 285 285 285 286 287 289 288 288 287 287 287 287 288 285
282 282 281 281 281 280 280 280 280 279 278 278 278 279 279 280 280 281 282 283 284 286 286 286 286 285 285 286 286 287 288 288 287 287 287 287 287 288
282 281 281 282 281 281 281 280 280 279 278 277 278 278 279 279 279 280 281 282 283 284 285 286 286 286 286 286 286 287 288 288 287 287 287 286 288 288
282 281 282 282 281 281 281 280 280 279 278 277 277 278 278 278 279 280 280 281 282 283 284 284 285 286 286 286 286 287 289 289 287 286 286 287 288 287
281 281 282 282 282 281 281 280 279 279 277 278 277 277 277 277 278 279 280 280 280 281 282 284 284 285 286 288 285 286 287 287 286 286 286 286 286 287
281 282 282 282 281 281 281 280 279 278 278 277 276 277 276 276 277 279 279 279 280 280 282 283 284 283 283 284 285 285 285 285 285 285 285 285 286 286
282 283 283 282 281 281 280 279 278 277 277 277 276 277 276 276 276 277 278 278 278 280 280 281 281 281 282 283 284 284 284 284 284 284 284 285 287 285
283 282 282 282 282 281 280 279 278 278 278 277 277 276 276 276 276 276 277 277 278 278 279 280 281 282 283 284 285 285 283 283 283 283 283 284 285 287
284 283 283 282 282 281 280 279 279 278 277 277 276 276 276 275 276 276 276 277 277 277 278 280 281 282 283 283 284 284 283 283 283 283 283 282 283 284

GFSNE_850_thetae_057.txt.gz
Theta_e
297 296 295 295 295 295 295 293 292 291 291 290 289 289 289 289 289 288 288 287 287 287 287 287 287 287 288 288 289 289 289 290 290 290 290 290 291 292
295 295 295 294 294 294 293 293 291 290 290 289 289 289 288 288 288 287 287 287 287 286 286 285 286 286 287 286 286 287 288 288 290 289 289 289 289 290
295 294 294 292 293 293 292 291 290 289 289 288 288 288 287 286 286 286 286 285 285 284 284 285 285 285 285 286 286 286 286 288 287 287 288 288 288 288
291 291 292 291 291 290 290 289 288 288 287 286 286 284 284 283 284 284 284 284 283 284 284 285 285 286 286 286 286 286 286 287 287 287 286 285 285 285
290 290 290 290 290 289 288 288 287 286 285 283 283 283 282 282 282 282 282 283 283 283 284 284 284 284 284 285 285 285 286 287 286 286 286 285 285 285
290 290 290 289 288 287 287 286 285 284 284 283 282 281 281 281 281 282 282 282 282 283 283 283 283 284 284 284 284 285 285 286 287 287 287 286 285 285
290 290 288 288 287 287 286 285 285 284 283 282 280 280 281 281 281 282 282 282 282 282 282 282 282 282 283 283 284 285 286 286 287 287 288 287 286 287
289 288 288 287 287 286 285 285 284 283 282 280 280 280 280 281 282 281 281 280 280 281 281 282 283 284 284 283 284 284 284 286 286 287 288 287 286 287
287 287 287 287 286 285 285 285 284 282 280 279 280 280 280 280 280 280 280 280 281 281 282 283 284 285 285 285 284 284 284 284 285 286 287 287 287 288
287 286 286 286 285 285 284 283 283 281 280 280 280 280 280 279 280 280 280 281 282 282 283 283 283 283 284 285 285 285 284 284 285 285 285 286 286 287
287 286 284 285 284 284 284 283 282 281 280 279 278 279 279 279 280 280 281 281 281 281 282 282 283 283 284 285 285 286 285 285 285 285 285 286 285 286
286 285 284 284 283 283 283 282 281 280 280 280 279 279 279 279 279 280 280 281 281 281 282 283 283 284 285 285 285 285 285 287 286 286 287 286 285 287
285 284 283 283 283 283 282 281 280 280 280 279 279 278 278 278 279 279 280 281 281 282 282 283 284 284 284 285 285 285 285 287 286 286 287 287 285 287
285 284 283 283 282 282 281 281 280 280 280 279 279 279 278 278 278 279 279 280 281 282 283 285 285 285 284 285 285 285 286 288 288 288 288 286 285 287
285 285 283 283 282 282 281 281 281 280 280 279 279 279 278 278 278 278 279 280 281 282 283 284 285 285 285 285 285 285 286 287 288 288 288 286 285 286
285 284 284 283 283 282 282 281 281 281 280 279 279 279 278 278 277 277 279 280 280 281 282 283 284 285 285 285 285 285 286 286 288 287 287 287 287 287
285 284 283 283 282 282 282 282 281 280 280 280 279 279 278 277 277 278 279 279 279 279 281 282 283 284 285 286 286 286 286 287 288 287 287 286 286 287
283 283 282 282 282 282 282 282 281 281 280 280 279 279 278 277 277 277 278 278 278 279 280 281 282 284 284 284 284 285 286 288 288 287 287 287 287 288
283 282 282 282 281 281 282 281 281 280 280 280 280 278 277 277 277 277 277 277 278 278 279 280 281 282 283 284 284 284 285 286 286 286 286 287 287 286
283 282 282 282 282 282 282 282 281 281 281 280 279 278 277 277 277 276 276 277 277 278 278 279 280 281 281 282 283 284 284 284 285 285 286 286 286 286
284 283 283 282 282 283 282 282 282 282 281 280 279 278 278 277 277 276 276 276 277 277 277 278 280 282 282 283 284 284 284 284 284 285 284 285 285 285
285 285 284 283 282 282 282 282 282 282 281 280 279 278 278 277 277 276 276 276 276 276 276 279 281 283 283 284 284 284 283 283 283 283 284 285 285 285
285 285 285 284 284 283 283 283 282 282 281 280 279 278 278 278 276 276 276 276 276 276 276 279 281 281 282 283 284 283 283 283 283 282 283 283 284 284

GFSNE_850_thetae_060.txt.gz
Theta_e
295 296 295 295 295 293 294 294 294 292 292 290 290 289 289 289 288 288 288 288 287 287 287 287 286 286 287 287 288 288 288 288 288 289 291 291 291 291
294 294 295 294 294 293 293 292 292 291 290 289 289 288 288 287 287 286 285 285 286 286 286 285 285 284 286 286 286 287 287 287 288 289 290 291 291 290
292 290 291 292 292 292 291 292 290 289 288 288 287 287 286 284 283 283 283 283 283 284 283 283 284 284 285 285 286 286 286 286 287 288 289 290 290 290
291 290 289 290 291 290 290 289 289 288 287 286 285 284 283 283 282 282 282 282 282 282 283 283 284 284 284 284 285 285 286 286 286 286 287 287 288 288
291 290 290 290 290 290 289 288 287 287 285 284 284 283 282 281 281 281 281 282 282 282 282 282 283 283 283 283 284 284 284 284 284 285 287 287 286 286
291 291 290 290 290 288 287 287 286 285 285 284 283 282 281 281 280 281 282 282 282 282 282 282 282 282 282 282 283 283 284 284 284 284 286 286 286 286
291 291 290 288 288 288 287 286 285 285 284 283 282 280 280 280 280 281 281 280 280 281 281 281 281 282 283 284 284 283 283 284 285 285 286 287 287 287
289 290 289 288 287 287 286 286 285 284 284 282 281 280 280 280 280 280 279 280 280 281 281 282 282 283 283 284 285 284 283 284 284 284 286 287 287 287
290 289 287 287 287 286 286 285 284 284 283 281 280 280 279 279 278 279 280 280 280 281 281 282 282 282 283 283 284 285 284 284 284 284 285 286 287 287
289 287 287 286 285 285 285 284 284 283 282 280 280 279 278 279 279 279 280 280 280 281 281 281 282 282 282 283 284 285 285 285 284 284 284 285 286 286
288 287 286 286 285 284 284 283 283 282 281 280 280 279 279 278 279 279 279 280 280 280 281 281 282 282 283 283 284 285 285 285 285 285 285 285 285 285
287 286 286 284 283 283 283 283 282 281 281 280 280 279 279 278 278 278 279 279 279 280 281 281 282 283 283 283 284 284 285 285 285 286 286 285 285 286
286 286 286 284 283 283 282 282 281 281 281 280 280 279 279 278 278 278 278 279 279 280 281 282 283 284 284 284 284 284 285 285 286 287 286 286 286 286
285 285 285 285 284 283 282 282 281 281 280 280 280 279 279 279 278 278 278 278 279 280 281 282 283 284 285 285 284 285 285 286 287 287 286 286 287 287
286 285 285 285 284 283 283 282 281 281 281 280 280 279 279 279 278 278 278 279 280 280 281 282 283 284 285 285 285 285 285 286 287 288 287 286 285 285
285 284 285 285 284 283 283 282 281 281 281 280 280 279 279 279 278 277 278 279 279 280 280 281 282 284 284 285 285 285 286 286 286 287 287 287 287 285
285 284 283 284 283 283 282 282 281 281 281 280 280 280 279 279 278 277 277 278 278 278 279 281 282 283 284 285 285 285 286 286 287 287 287 286 286 286
284 284 283 283 283 282 282 281 281 282 281 280 280 280 280 278 278 277 276 277 277 278 279 280 281 282 283 284 284 285 286 287 287 287 287 287 286 287
285 284 284 283 283 282 282 281 281 281 281 281 280 280 279 278 278 277 276 276 277 277 278 278 280 281 281 282 284 284 285 285 285 286 286 286 286 287
285 285 284 284 283 282 282 281 281 281 281 281 281 280 279 278 278 277 276 276 276 277 277 277 279 281 281 281 282 284 284 284 285 285 285 286 286 286
286 286 285 285 284 283 282 282 282 282 282 281 281 280 279 278 278 277 276 276 276 276 276 279 280 281 282 282 283 284 284 283 284 284 284 285 285 285
286 286 286 285 285 284 283 282 282 282 282 282 281 280 279 279 278 277 276 276 276 276 275 279 281 283 283 283 284 284 283 283 283 283 284 285 285 285
286 286 286 286 285 285 284 283 283 282 282 282 281 280 279 279 278 277 276 276 276 275 275 278 280 281 282 283 283 283 283 283 282 282 282 283 284 284

GFSNE_850_thetae_063.txt.gz
Theta_e
294 294 294 292 293 295 294 294 294 292 292 291 290 289 289 288 288 288 287 287 287 287 286 286 286 286 286 286 286 287 287 288 289 289 290 289 290 291
294 294 293 290 290 291 292 292 292 291 290 289 288 287 287 286 285 284 283 283 283 283 283 284 284 284 284 285 286 286 287 287 288 288 288 289 289 290
294 294 291 290 290 289 290 290 290 289 289 288 287 286 285 283 283 282 282 282 282 282 282 282 282 284 284 284 285 285 285 286 286 287 288 288 289 290
294 292 290 290 290 290 290 290 289 288 287 287 286 285 284 283 282 282 282 282 281 282 282 282 282 282 283 283 283 284 284 284 284 284 286 286 287 289
293 291 290 290 290 290 290 289 288 287 286 286 285 284 283 282 282 282 282 281 281 281 282 282 282 282 282 282 283 283 283 283 284 284 284 284 284 286
291 290 290 290 290 290 289 288 287 286 286 285 284 283 282 281 281 281 281 280 280 280 281 281 281 281 281 282 282 282 282 283 283 283 284 284 284 285
290 289 290 289 289 289 288 287 286 286 285 284 284 282 282 280 280 279 279 279 280 280 281 281 282 282 283 283 284 284 284 284 283 283 284 284 285 285
290 289 289 289 289 288 287 286 286 285 284 284 283 282 280 280 279 279 279 279 279 280 280 281 281 282 282 282 283 283 284 284 284 283 284 284 284 286
289 289 289 288 287 286 286 286 285 284 284 283 282 281 280 279 279 279 279 279 279 280 280 280 280 281 282 282 282 283 284 285 285 284 284 284 284 285
287 288 288 287 287 286 285 285 284 284 283 282 281 280 280 279 278 278 279 279 279 279 279 280 281 282 282 283 284 283 284 285 285 285 285 284 284 284
286 288 287 287 286 285 284 284 283 283 282 281 280 280 280 279 278 278 278 278 278 279 280 280 281 282 283 284 284 284 284 284 285 285 285 285 285 285
287 286 287 286 286 285 283 283 283 282 282 281 280 280 279 279 279 278 278 278 278 278 279 279 280 281 282 284 284 284 284 284 285 285 285 285 285 286
286 286 286 285 286 285 284 283 282 282 281 281 280 280 280 279 279 279 278 278 278 278 279 280 280 281 282 283 284 284 284 285 285 286 286 286 287 285
286 286 285 285 285 284 284 283 282 282 281 281 281 280 280 279 279 279 278 278 277 278 279 280 280 281 282 283 284 285 285 285 286 287 286 285 285 286
287 287 286 286 285 285 284 284 283 282 281 281 281 280 280 279 279 279 278 277 278 279 279 279 280 281 282 284 284 285 285 286 286 287 288 287 286 287
286 286 285 285 285 285 284 284 283 282 281 281 281 280 280 280 279 278 278 277 278 278 278 279 280 281 283 284 283 284 285 285 286 287 287 287 287 286
285 285 285 285 284 283 283 284 283 282 281 281 281 280 280 280 279 278 278 277 277 277 278 279 280 281 282 283 284 284 285 286 287 287 287 286 286 286
285 285 285 285 284 284 283 283 282 282 281 281 281 281 280 279 279 278 277 276 276 277 277 278 279 280 282 283 283 284 285 285 286 286 286 286 286 286
286 285 285 285 285 284 284 283 282 282 281 281 281 281 280 279 279 278 278 277 276 276 277 277 277 278 280 281 283 283 283 284 285 285 286 286 286 286
287 286 286 286 285 285 284 283 282 282 281 281 281 281 280 280 279 278 278 277 276 276 276 277 278 280 280 281 281 283 283 283 284 284 285 285 286 286
286 286 286 286 286 286 285 284 282 282 282 282 281 281 280 280 279 278 278 277 276 276 276 278 280 281 282 282 283 283 283 283 283 283 284 284 285 285
286 286 286 286 286 286 285 285 284 282 282 282 282 281 281 280 279 278 278 277 277 276 276 276 280 281 282 282 283 283 283 282 282 283 283 284 285 285
284 284 285 285 285 286 286 285 285 283 282 282 282 282 281 280 279 278 278 277 277 276 276 276 279 281 282 282 283 282 283 282 282 282 283 283 283 284

GFSNE_850_thetae_066.txt.gz
Theta_e
293 294 294 294 292 290 291 293 292 292 292 291 290 290 289 288 287 286 285 284 284 283 283 283 283 284 285 286 286 286 287 287 288 288 289 289 290 290
294 294 294 293 290 290 290 289 290 290 290 290 289 287 286 286 285 284 283 283 283 283 283 283 282 282 283 284 285 286 286 287 287 288 288 289 289 290
294 294 294 292 290 290 289 289 290 290 289 289 288 287 286 285 284 283 282 282 282 282 282 282 282 283 283 284 284 284 285 285 286 286 287 288 288 289
295 294 293 290 290 290 290 289 290 289 289 288 287 286 285 284 283 282 282 282 282 282 281 282 282 282 282 282 282 282 282 283 283 284 285 286 286 287
294 293 292 290 290 289 290 290 289 289 288 286 286 285 284 283 282 281 281 281 281 280 280 281 281 281 281 281 281 282 282 282 283 283 283 283 284 284
293 292 291 290 289 289 289 290 289 287 287 286 285 285 284 283 281 281 281 281 281 280 280 281 281 281 281 281 282 282 283 283 282 282 282 283 283 283
291 291 290 289 289 289 289 289 288 287 286 285 285 284 283 282 280 280 280 280 280 280 280 280 281 281 281 282 282 282 283 284 284 284 284 283 283 283
290 290 289 289 289 289 288 287 287 286 286 285 284 283 283 281 280 280 279 279 279 280 279 279 280 280 281 281 282 282 282 282 283 284 284 284 283 283
290 290 288 287 289 288 287 286 286 286 285 284 283 283 282 280 280 280 279 279 279 279 278 279 280 280 281 282 282 282 283 282 283 284 285 285 284 284
290 289 287 287 287 287 286 286 285 284 284 283 283 282 280 280 280 279 278 278 278 279 278 278 280 281 282 283 284 284 284 283 284 285 285 284 285 284
289 288 287 286 287 287 286 285 284 283 283 283 282 281 280 280 279 279 279 278 278 279 279 279 279 280 282 283 284 284 284 284 284 284 284 284 285 285
288 288 287 286 285 287 286 285 284 283 283 282 281 280 280 280 279 279 279 278 278 278 278 277 279 279 280 283 283 284 284 284 284 284 285 285 285 285
287 287 287 286 286 286 285 285 284 283 282 281 281 281 280 280 279 279 279 279 278 277 278 278 279 279 279 280 283 284 284 285 285 285 286 285 285 285
286 286 287 287 286 286 285 285 284 284 282 282 282 281 281 280 280 279 279 279 278 277 278 279 279 279 279 280 281 283 284 285 285 286 286 287 286 285
286 286 286 287 287 286 285 285 285 284 283 282 282 281 281 280 280 279 279 279 278 278 278 278 278 278 279 280 281 283 283 285 285 286 286 287 287 285
287 286 286 285 285 285 285 285 285 284 284 283 282 282 281 281 280 279 279 278 278 278 277 277 278 278 280 280 282 282 283 284 285 286 287 286 286 286
286 286 285 285 285 285 285 284 284 283 283 283 282 281 281 281 280 279 279 278 278 277 277 277 277 278 279 281 282 283 283 284 285 285 286 286 286 285
287 286 286 286 285 285 285 284 284 283 283 282 282 281 281 281 280 279 279 278 278 277 277 277 277 277 279 281 282 283 283 283 284 285 285 286 285 285
287 287 287 287 286 285 285 285 284 284 283 282 281 281 281 280 280 279 279 278 278 277 277 276 277 278 279 280 281 282 282 283 283 284 285 285 285 286
286 285 286 286 286 286 286 286 285 284 283 282 281 281 281 280 280 279 279 278 277 277 277 276 278 279 280 280 280 282 283 283 283 283 284 284 285 285
285 285 285 285 285 285 285 286 285 285 284 282 281 281 281 281 280 280 279 278 277 277 277 276 279 280 281 281 282 283 282 282 282 283 283 284 284 284
283 284 284 284 284 285 284 285 285 285 284 283 282 282 282 281 280 280 279 278 277 277 277 276 277 280 281 282 282 282 282 282 282 282 282 283 284 284
281 282 283 283 284 284 284 283 284 284 284 284 282 282 282 281 281 280 279 278 277 277 277 277 277 279 281 282 282 282 282 282 282 282 282 282 283 283

GFSNE_850_thetae_069.txt.gz
Theta_e
293 293 294 294 294 292 290 290 293 293 292 292 291 290 289 288 288 287 287 286 284 283 283 283 283 283 283 283 285 286 287 287 288 288 288 289 289 290
293 294 294 294 293 292 289 290 292 292 291 291 291 290 289 287 286 286 284 283 283 283 283 283 283 283 283 283 284 285 286 286 287 288 288 289 289 290
294 294 294 294 293 292 290 290 291 291 290 290 290 288 287 287 285 284 283 283 282 283 282 282 282 283 283 283 283 283 284 284 285 286 286 287 288 289
294 294 294 293 292 291 290 290 291 291 290 290 290 287 286 286 285 284 283 282 282 282 282 282 282 281 281 281 281 282 282 283 283 284 284 285 286 287
294 294 294 293 291 291 290 290 290 289 289 289 288 286 286 285 284 283 282 282 282 282 282 281 281 281 281 281 281 281 282 282 282 282 282 283 284 285
293 293 292 291 290 290 290 290 289 289 288 288 286 286 285 284 283 282 282 282 281 281 282 281 280 281 281 281 281 281 282 283 283 283 283 283 283 282
290 290 291 290 290 289 289 288 288 288 288 287 286 285 285 284 283 282 281 281 281 281 281 282 281 281 282 281 281 281 282 282 282 283 283 283 284 284
289 290 290 290 290 289 287 289 289 288 287 286 286 285 285 284 282 281 281 281 281 281 281 281 281 281 282 282 282 282 282 282 282 282 282 283 284 285
289 290 290 290 289 288 286 288 287 287 286 286 285 285 284 283 281 281 281 281 281 281 280 281 281 281 282 282 283 283 283 283 283 284 283 283 284 285
288 289 290 290 289 287 287 287 287 286 286 285 284 283 283 282 281 280 280 280 280 280 280 280 281 281 281 282 283 284 284 284 284 284 283 284 284 284
288 288 288 288 288 287 286 287 286 286 285 284 283 283 283 281 280 280 280 280 281 280 280 280 281 280 281 282 283 283 283 284 284 284 284 284 284 284
289 289 288 287 287 287 286 286 286 286 285 284 283 282 282 281 280 280 280 280 280 280 280 279 279 280 281 282 283 282 283 284 284 285 285 285 285 286
290 290 289 288 286 287 286 286 286 285 285 284 283 282 282 281 280 280 280 279 279 280 280 278 278 279 280 280 281 282 283 284 284 285 285 286 286 286
289 289 288 288 286 287 287 286 286 285 285 285 283 282 282 281 281 281 280 280 279 279 278 278 277 278 279 279 280 282 282 283 284 285 285 286 287 287
286 287 288 287 286 286 286 286 286 286 285 285 284 283 283 282 281 281 280 280 279 279 278 277 278 278 278 278 279 280 281 283 284 285 285 286 286 286
285 286 287 287 286 286 285 285 285 285 285 284 284 283 283 282 282 281 280 279 279 279 279 277 277 277 278 279 280 281 282 283 283 284 285 286 286 286
285 286 287 287 286 286 285 285 285 285 284 284 283 283 283 282 281 281 280 279 279 279 278 278 277 277 277 277 279 281 282 283 283 284 285 286 286 285
286 287 287 286 286 286 286 286 285 285 284 284 283 283 283 282 281 281 280 279 279 278 278 278 278 278 279 280 280 281 282 282 283 284 284 285 285 285
286 286 286 286 286 286 286 285 286 286 285 284 284 283 282 281 281 281 280 279 278 278 278 278 278 278 279 281 281 281 281 282 283 283 283 284 285 285
283 284 284 284 285 285 285 285 285 285 285 285 284 283 282 281 281 281 280 279 278 278 278 278 277 278 279 279 279 281 282 282 282 283 283 284 284 285
281 281 281 282 283 284 284 284 284 284 284 284 284 283 282 281 281 281 280 280 279 278 278 278 277 278 280 281 281 282 282 282 282 282 282 283 284 284
278 279 280 280 281 281 283 283 283 283 283 284 284 283 282 281 281 281 281 280 279 278 277 277 276 278 280 280 281 282 282 282 282 282 282 282 282 283
276 277 277 278 279 280 281 282 283 283 282 282 283 283 282 282 282 281 281 280 279 278 277 277 276 278 279 280 281 282 282 282 282 281 282 282 282 283

GFSNE_850_thetae_072.txt.gz
Theta_e
298 298 298 297 297 296 295 294 294 294 294 294 294 294 292 291 291 291 289 288 287 285 284 283 283 283 283 283 283 284 286 287 288 288 289 289 289 290
298 298 297 296 296 296 295 294 293 293 293 293 293 293 292 291 291 289 288 287 285 284 283 283 283 283 283 283 283 284 285 286 287 287 288 288 289 290
298 297 297 296 296 295 295 294 293 293 293 293 292 292 292 291 289 289 288 287 286 284 283 283 283 283 283 283 283 283 283 283 284 285 286 287 288 288
297 297 296 296 295 295 294 294 293 293 292 292 292 291 291 290 289 288 287 286 285 284 284 283 283 283 283 282 282 282 282 282 282 283 284 284 285 286
296 296 296 295 295 294 294 293 293 292 292 291 291 291 290 289 288 288 287 286 285 284 283 283 282 283 282 282 281 281 282 282 282 282 282 283 283 284
295 295 295 295 294 294 293 292 292 291 291 290 290 289 289 289 288 287 286 285 285 284 284 284 283 283 283 283 282 282 282 281 282 282 283 283 284 284
294 294 294 294 293 291 291 291 291 290 290 289 289 289 289 288 288 287 286 285 284 284 284 284 284 284 284 284 284 283 283 282 282 282 282 283 283 283
293 293 293 293 293 292 290 290 289 289 289 290 289 289 288 288 287 286 286 284 284 284 284 284 284 284 284 284 284 283 282 282 282 282 282 282 282 282
292 292 292 292 292 291 290 290 289 288 288 288 289 288 287 287 286 285 284 284 284 284 283 283 283 284 284 284 284 283 283 284 284 284 284 284 284 283
292 292 292 292 291 291 291 290 289 288 288 287 287 287 286 286 285 284 283 283 283 283 284 283 283 284 284 284 283 283 283 283 284 284 284 284 284 283
292 291 291 291 291 290 290 289 288 288 287 287 286 286 285 284 283 283 283 283 283 284 284 283 283 283 283 284 285 285 284 283 284 284 284 285 285 285
290 290 290 290 290 289 287 288 288 287 287 287 286 285 284 283 283 282 282 282 282 283 283 282 282 282 283 283 284 283 284 284 284 285 285 286 285 286
287 286 287 289 289 289 288 286 287 287 287 286 286 286 285 284 284 283 282 282 282 282 283 282 282 281 282 282 283 283 283 284 285 285 286 286 286 286
285 285 286 286 286 287 288 287 286 287 287 286 286 285 285 285 284 283 283 282 282 282 282 281 280 281 281 281 282 282 282 283 284 284 285 286 286 287
285 286 286 285 286 287 287 287 286 286 287 287 286 286 285 285 284 284 283 282 282 281 281 280 280 280 281 281 282 282 282 283 283 285 285 285 286 286
285 286 286 286 286 286 287 286 286 286 286 286 286 286 285 285 284 283 283 283 282 281 281 281 280 280 280 281 281 281 282 283 283 285 284 285 286 286
285 286 287 287 287 287 287 286 286 286 285 285 285 285 285 284 284 283 282 282 282 282 282 282 281 280 280 280 280 281 282 283 284 284 284 285 286 287
284 285 286 286 286 287 287 287 286 286 286 285 285 284 284 284 283 283 282 282 282 282 282 282 281 281 281 282 282 282 282 283 284 283 284 284 286 286
281 281 281 283 284 286 286 286 286 285 285 285 285 284 284 283 283 283 282 282 281 281 282 281 281 281 281 282 283 282 282 282 282 283 284 284 284 284
278 278 278 279 281 282 283 285 285 285 285 285 285 284 284 284 283 282 282 282 282 281 281 281 281 281 281 281 281 281 282 282 282 283 283 283 284 285
275 276 275 276 277 279 280 282 283 284 284 284 284 284 284 284 283 282 282 282 281 281 281 281 281 279 277 280 281 282 284 282 282 282 282 282 284 286
273 273 273 274 274 276 277 279 280 282 283 284 283 283 284 283 283 282 282 282 281 280 281 281 280 279 280 281 282 283 284 283 282 282 282 282 282 283
271 271 271 272 272 272 275 277 278 279 280 281 282 282 283 283 283 282 282 281 281 281 280 280 280 279 280 281 281 282 283 283 283 283 283 282 282 283

GFSNE_850_thetae_075.txt.gz
Theta_e
302 301 301 301 300 299 298 298 297 297 296 296 296 296 295 295 294 293 293 292 291 290 288 286 284 283 283 283 283 283 285 286 287 288 288 289 289 290
301 301 301 300 299 298 298 297 297 296 296 295 295 295 295 294 294 293 292 291 290 289 288 286 284 283 283 283 283 283 283 285 286 286 287 288 289 289
301 301 300 299 298 298 298 297 296 296 295 295 294 294 294 293 293 293 292 291 290 289 287 286 285 284 283 283 283 283 283 283 283 284 285 286 287 288
301 300 299 298 298 298 297 297 296 295 295 295 294 294 293 293 292 293 291 290 289 288 287 286 285 284 283 283 283 283 282 282 282 282 284 284 285 286
300 299 298 298 297 297 297 296 296 295 294 294 294 293 293 292 291 291 291 289 289 287 286 286 285 284 284 284 284 284 283 283 282 282 282 282 283 284
297 297 297 297 296 296 296 295 295 294 293 293 293 292 291 290 291 290 290 289 289 288 286 286 286 285 285 285 285 285 284 284 283 283 282 282 283 282
295 295 295 295 295 295 295 294 293 293 292 292 291 291 290 290 290 290 290 289 288 287 286 286 286 286 286 285 285 285 285 284 284 282 282 282 282 282
294 294 294 294 294 294 294 293 293 292 291 290 290 290 290 291 290 290 289 288 287 286 286 286 286 285 285 285 285 285 284 283 283 283 283 282 282 283
292 293 293 293 293 293 293 293 292 292 291 290 289 289 289 290 289 288 288 287 287 286 285 285 284 285 285 285 285 285 284 283 283 284 284 284 284 284
293 293 293 293 293 292 292 292 292 291 291 290 289 288 288 288 288 288 287 286 285 284 284 284 285 285 285 285 284 284 285 284 283 283 283 284 284 285
292 292 292 291 291 291 291 291 291 290 290 290 289 288 288 287 287 286 285 285 284 284 284 285 285 284 284 284 284 285 285 284 284 284 284 284 285 286
287 288 287 287 287 287 288 289 289 289 289 289 288 288 287 287 286 285 284 284 284 284 284 284 285 284 284 283 284 283 283 284 284 284 284 285 285 285
284 284 285 286 286 286 286 286 286 287 288 288 288 288 288 287 286 285 284 283 283 283 284 284 284 283 283 283 283 283 283 284 283 284 284 285 286 286
283 285 286 286 286 286 286 285 285 287 287 287 287 288 287 287 286 286 285 284 283 283 283 283 283 283 282 282 282 282 283 283 283 283 283 285 285 286
282 283 284 285 286 287 287 287 286 287 287 286 287 287 287 287 287 286 285 284 284 283 283 282 282 281 281 281 282 282 282 283 283 283 285 285 285 285
281 282 284 286 287 288 288 288 287 287 287 286 286 287 287 287 286 286 285 285 284 283 283 282 282 282 281 281 281 282 282 282 282 282 284 285 285 286
280 282 284 285 285 286 287 287 287 287 287 286 286 286 286 286 286 286 285 285 284 284 283 283 283 283 282 282 281 281 282 282 283 284 285 284 285 286
279 282 282 282 282 283 284 286 287 287 287 287 286 286 286 286 286 286 285 284 284 283 283 283 283 283 283 282 283 283 283 283 283 284 283 284 284 285
280 280 280 279 279 279 280 281 283 285 286 286 286 286 286 285 285 285 285 284 283 283 283 283 283 283 282 283 283 283 282 282 282 282 283 283 284 284
278 278 278 278 277 277 278 278 280 282 284 285 286 286 286 286 285 285 284 284 283 283 283 283 283 283 282 282 282 282 282 283 282 283 283 282 283 285
277 276 276 276 275 275 275 276 277 278 280 281 283 284 285 285 285 285 284 283 283 283 283 283 282 282 282 281 279 281 283 283 283 282 282 282 283 284
274 274 274 273 273 273 273 274 274 276 277 279 281 282 284 284 284 285 284 283 283 283 282 282 282 282 281 281 282 282 283 284 283 283 283 282 282 282
272 272 272 272 272 272 272 272 272 273 274 276 277 280 282 283 284 284 284 283 283 283 282 282 282 281 281 281 282 282 282 284 284 284 283 283 282 282

GFSNE_850_thetae_078.txt.gz
Theta_e
306 303 302 301 301 301 300 299 298 298 298 297 296 296 295 295 295 295 295 294 294 293 292 291 289 289 288 286 284 283 283 284 286 287 288 288 289 290
303 303 301 301 301 300 299 298 298 298 297 297 296 296 295 295 295 294 294 293 293 292 291 290 289 288 287 286 284 283 283 283 283 285 286 287 287 288
302 302 301 301 300 300 299 298 298 298 297 297 296 296 295 295 294 294 293 293 293 293 291 289 289 288 287 285 284 284 283 283 283 282 283 285 286 287
302 301 301 301 300 299 299 298 298 297 297 297 296 295 295 295 294 293 293 292 292 292 290 289 288 287 286 285 285 285 284 284 284 284 283 284 284 285
301 301 300 299 298 298 297 297 297 297 297 296 295 295 294 294 293 292 292 290 290 291 290 289 287 286 286 286 286 285 285 285 284 284 284 283 282 283
300 298 298 297 296 296 296 296 296 296 296 295 294 293 293 292 291 291 290 289 290 290 289 289 287 286 286 286 286 285 285 286 285 284 284 283 282 282
297 296 295 295 295 295 295 294 294 294 294 293 293 293 291 290 290 290 290 290 290 289 289 287 287 286 286 286 285 285 285 285 284 284 284 282 283 282
291 291 291 292 292 293 293 293 293 293 293 293 293 292 292 291 290 289 289 290 289 288 287 287 286 286 286 285 284 285 285 285 285 284 283 283 284 284
290 290 291 292 293 293 293 293 293 293 293 293 292 292 291 291 289 288 288 289 288 287 287 286 286 285 284 284 285 285 285 284 284 284 283 283 283 284
291 292 292 292 292 292 292 292 292 292 291 291 291 291 290 290 289 288 288 288 287 286 286 285 284 283 284 285 285 284 283 284 284 284 284 283 283 284
291 289 287 286 287 287 287 286 286 285 285 288 289 289 289 289 289 288 288 287 287 286 285 284 284 284 285 284 284 284 283 284 283 284 284 284 284 284
286 285 285 284 284 284 286 286 286 286 286 286 286 287 288 289 288 287 287 287 286 285 285 284 284 284 284 284 283 284 283 282 283 283 284 283 284 285
285 284 283 283 283 285 285 286 286 287 287 286 285 285 286 287 289 288 287 286 285 285 284 283 283 283 283 283 282 282 281 282 282 283 283 283 284 284
282 282 282 282 282 283 284 286 287 287 287 287 286 287 287 287 287 288 287 286 286 285 284 283 283 283 283 283 282 281 281 281 281 282 283 283 284 285
281 281 281 281 282 286 286 287 287 287 287 287 286 286 286 287 287 287 287 287 286 286 285 284 284 283 282 282 281 281 281 281 281 282 283 283 284 285
280 280 280 281 283 284 284 285 286 286 287 287 287 286 287 287 287 287 287 287 286 285 285 284 284 283 282 282 282 281 281 281 282 282 282 283 284 285
279 279 280 282 281 281 281 281 283 285 285 286 287 287 286 286 286 286 286 286 286 286 285 284 284 283 283 283 282 282 282 282 283 282 283 284 284 284
278 279 281 280 280 279 278 279 279 281 283 284 285 287 287 286 286 286 286 285 285 285 284 284 283 283 283 283 283 283 283 283 283 283 283 283 283 284
279 279 279 278 278 277 277 277 277 277 278 280 282 284 285 286 286 286 285 285 286 285 284 284 282 283 283 282 282 283 283 282 282 282 282 283 283 283
278 278 277 277 276 276 275 275 275 275 275 278 280 281 283 285 285 286 286 285 285 285 284 283 282 282 283 283 283 282 282 280 283 283 282 282 283 283
276 276 275 275 274 274 273 273 273 273 274 275 277 278 280 282 284 285 285 285 285 284 284 283 282 283 283 282 282 281 281 282 283 283 282 282 282 283
274 274 273 273 273 273 272 272 272 272 272 272 274 275 277 279 281 283 284 285 285 284 283 283 282 282 282 281 281 281 282 282 283 283 283 283 282 282
273 272 272 272 271 271 271 271 271 270 270 271 272 274 275 277 279 281 283 285 284 284 283 282 281 282 282 281 281 281 282 282 283 284 283 284 283 282

GFSNE_850_thetae_081.txt.gz
Theta_e
308 308 308 308 303 302 301 300 300 299 299 298 297 296 296 296 295 294 294 295 294 294 294 293 293 292 291 289 288 287 286 284 283 285 287 287 288 289
308 309 306 303 302 301 300 300 300 299 298 298 297 297 297 296 295 295 295 294 294 294 293 293 292 292 290 289 288 286 285 285 284 283 284 286 287 287
308 305 303 302 302 301 300 300 300 299 298 298 297 297 296 296 296 295 295 294 294 293 293 292 292 291 289 288 287 286 285 285 284 284 284 285 285 286
308 303 302 301 301 301 301 299 299 298 298 298 297 297 297 296 295 294 294 293 293 292 291 290 290 290 289 288 286 286 286 285 285 285 284 284 284 284
303 302 302 301 301 300 299 298 298 297 297 296 297 296 296 295 294 293 292 292 291 290 290 289 290 289 288 287 287 286 286 285 285 285 285 284 284 283
302 301 301 300 299 297 296 295 295 295 295 295 294 294 293 293 293 293 292 291 290 288 289 290 290 289 288 287 286 286 286 285 285 285 285 284 284 284
301 301 299 298 296 294 295 294 293 293 293 293 293 293 293 293 293 292 292 290 290 288 289 290 289 287 287 286 286 286 286 285 285 285 285 284 284 283
301 299 296 291 290 291 291 292 293 293 293 293 293 292 292 292 292 292 292 291 289 288 288 288 287 287 286 286 285 285 284 285 285 285 284 284 284 283
297 293 290 290 290 291 292 292 292 292 293 292 292 291 290 291 291 291 290 290 289 288 288 288 287 286 286 285 284 284 285 285 284 283 284 284 284 283
293 292 292 291 291 290 288 287 286 286 285 285 285 285 285 286 287 288 288 289 288 288 287 287 286 286 285 284 284 284 284 284 284 284 283 283 284 284
293 292 291 288 286 285 285 284 284 284 284 285 286 286 286 285 286 287 288 289 288 288 287 287 286 285 284 283 283 284 284 283 283 283 283 283 283 284
290 287 286 285 284 283 283 283 283 283 284 285 287 287 286 286 285 285 286 288 288 287 287 286 285 284 284 283 283 283 283 283 283 282 282 282 283 283
286 286 284 283 283 282 282 282 285 286 286 287 287 287 287 285 285 287 287 288 288 287 287 286 285 284 283 283 283 283 283 282 281 281 282 281 282 283
285 283 282 282 281 281 282 285 286 286 285 286 287 287 287 286 286 286 286 287 287 288 286 286 285 284 283 283 283 282 282 281 281 281 281 282 283 283
282 281 281 280 280 281 282 282 282 283 284 284 285 286 287 286 286 286 286 287 287 287 287 286 286 285 284 283 283 282 282 281 281 282 282 282 282 282
281 281 280 280 280 282 281 280 279 280 281 282 283 284 285 286 286 286 286 286 287 287 287 286 285 285 284 284 282 282 282 282 282 282 282 282 283 284
280 279 279 280 280 280 279 279 278 278 279 280 280 282 284 284 285 286 286 286 286 286 285 285 285 285 284 283 283 283 282 282 282 283 283 283 283 283
279 279 279 279 279 278 278 277 277 276 276 277 277 278 280 282 284 286 286 286 286 286 285 285 285 284 284 282 283 283 282 282 283 282 282 282 282 283
278 278 278 278 277 277 276 275 275 274 274 274 275 276 277 280 282 284 285 286 285 285 285 285 285 284 283 283 282 282 282 282 282 281 282 282 282 283
277 276 276 276 275 275 274 274 273 273 272 273 274 275 275 276 279 281 283 285 286 286 285 285 284 284 282 282 282 283 282 282 281 281 283 282 282 282
276 275 275 274 274 273 272 272 272 271 271 271 272 273 273 274 277 278 280 282 284 285 285 285 284 283 282 283 282 282 281 281 282 283 283 282 282 282
274 273 273 273 272 271 271 271 271 270 270 270 270 270 272 273 274 276 278 280 282 284 285 285 284 283 282 282 282 281 281 281 282 282 283 283 283 282
272 272 271 271 270 270 270 270 269 269 269 269 269 270 270 271 273 275 276 278 280 282 285 284 283 283 282 282 282 281 281 282 282 283 283 283 284 283

GFSNE_850_thetae_084.txt.gz
Theta_e
313 311 311 307 307 309 305 302 301 300 300 300 298 296 294 295 296 296 296 295 295 294 294 294 294 293 293 293 292 291 288 287 286 286 286 287 287 288
312 311 309 309 309 307 306 301 300 300 300 299 298 297 296 296 296 296 296 296 295 295 294 294 294 292 292 292 291 290 288 286 286 285 285 286 286 287
311 310 309 308 307 304 302 301 300 300 300 299 299 298 298 297 297 296 296 295 295 294 294 294 293 292 291 290 290 289 288 286 286 285 285 285 285 286
311 310 308 306 303 302 301 300 301 300 299 298 298 297 297 296 296 296 295 295 293 293 293 292 291 290 289 290 290 289 288 286 286 285 285 285 285 285
310 308 306 303 302 301 301 300 299 298 297 296 295 294 295 294 294 293 293 293 293 292 292 291 290 288 289 290 290 288 286 286 286 286 285 285 285 284
307 303 302 302 301 300 300 299 297 296 294 294 294 293 293 293 293 293 293 292 292 292 292 290 289 288 289 289 289 288 287 286 286 285 285 285 285 284
303 302 301 301 300 298 297 296 294 294 293 293 292 293 292 292 292 292 291 291 291 290 291 290 289 288 289 289 287 286 286 286 286 285 285 285 284 284
301 301 300 299 298 297 292 290 290 291 291 292 292 292 292 292 290 288 288 289 290 290 290 289 288 287 288 287 287 286 286 285 284 284 285 284 284 284
300 300 299 298 296 291 290 291 290 291 291 291 290 288 286 285 285 285 285 285 286 286 288 289 288 287 287 287 286 285 285 283 284 285 284 284 283 283
299 298 296 293 292 292 291 289 287 286 285 284 284 284 284 285 286 286 286 285 286 288 288 289 288 287 287 286 285 284 283 284 284 284 284 283 283 283
296 294 293 293 291 288 286 285 284 284 283 283 283 284 284 285 287 286 286 285 286 286 286 288 288 287 287 285 284 284 283 283 284 284 283 283 282 282
294 294 291 287 286 284 283 283 283 283 283 284 284 284 286 286 287 286 285 286 287 286 286 287 287 287 285 285 284 283 283 283 283 283 282 282 281 282
290 287 286 285 283 283 282 282 282 282 283 284 285 285 284 285 286 286 286 285 286 286 286 287 287 286 285 284 284 283 283 283 282 281 281 281 281 281
287 286 284 282 282 281 281 281 282 282 281 281 281 282 283 284 284 285 285 285 285 286 286 287 287 286 286 285 284 284 283 282 281 281 281 281 281 282
285 283 281 281 280 280 281 281 281 280 279 279 280 281 282 284 284 285 286 286 286 286 287 287 287 286 286 285 284 284 283 282 282 281 282 282 282 282
282 281 280 280 279 280 280 280 279 278 278 277 277 278 280 281 283 284 284 285 285 286 286 287 287 287 285 285 284 284 284 282 282 282 283 282 282 283
280 279 279 279 279 279 279 278 277 277 276 276 276 277 277 278 280 281 283 284 285 286 286 286 286 285 285 285 284 284 283 282 282 282 282 282 282 282
279 278 279 279 278 278 277 277 276 275 275 274 275 275 275 276 278 280 281 283 284 286 286 286 285 285 285 284 283 283 282 282 282 282 282 281 282 282
278 278 277 277 276 276 275 275 274 273 273 272 272 273 273 275 276 277 278 280 282 284 286 286 285 285 285 284 284 283 282 282 282 282 282 282 282 282
277 277 276 275 275 274 273 273 272 272 271 271 271 271 272 273 274 275 276 277 279 281 284 285 285 284 285 284 283 282 282 282 282 282 281 282 283 282
275 274 274 273 273 272 272 271 271 271 270 270 270 270 270 271 272 273 274 276 278 279 281 284 285 284 284 283 282 282 282 281 281 281 282 282 282 282
273 273 272 271 271 271 270 270 270 269 269 269 269 269 269 270 270 271 272 274 276 277 278 283 284 284 283 282 282 282 281 281 281 281 281 283 283 283
271 270 270 270 269 269 269 268 268 268 268 268 268 269 269 270 270 270 271 273 275 277 278 281 283 284 283 282 282 282 281 281 281 282 282 283 283 283

GFSNE_850_thetae_087.txt.gz
Theta_e
315 316 314 313 312 310 310 305 309 304 304 304 301 300 298 297 295 294 295 295 295 295 295 295 295 294 294 294 293 293 292 291 292 290 289 287 286 288
316 316 314 313 311 311 307 308 307 305 301 300 300 299 298 297 296 295 296 296 296 295 294 295 294 294 294 294 293 292 291 290 291 290 289 287 287 287
315 316 314 313 311 310 309 307 303 301 301 300 300 300 299 297 296 296 296 295 294 295 294 294 293 293 292 292 291 290 288 289 290 289 288 287 287 287
316 316 314 312 310 309 306 303 302 301 300 300 300 299 297 296 295 293 293 293 293 293 292 292 292 292 292 291 290 288 289 289 290 289 286 286 286 286
316 314 313 310 309 306 303 302 301 301 300 299 298 297 295 293 293 293 292 292 292 292 292 292 292 292 291 291 290 287 288 290 290 288 286 286 285 285
315 313 310 309 306 304 302 301 301 300 299 298 296 294 293 293 292 292 291 291 291 291 291 291 291 291 289 290 289 288 289 289 288 287 287 286 285 285
312 310 307 306 305 302 301 301 299 298 297 295 292 291 291 291 291 291 290 288 286 285 285 285 289 289 290 289 288 287 289 287 287 287 286 286 285 285
309 306 305 302 301 301 299 299 297 294 291 290 290 291 290 290 288 286 285 284 284 285 285 285 286 287 288 288 287 288 287 287 286 286 285 285 284 285
306 303 301 300 299 298 296 296 293 291 291 291 290 288 286 285 284 284 284 285 286 286 285 285 285 287 287 288 287 287 287 286 286 285 283 284 285 284
301 299 298 297 297 295 294 292 292 290 287 285 284 284 284 283 284 284 286 286 286 286 286 285 285 286 287 288 287 287 286 285 284 283 284 284 284 283
299 297 298 296 294 293 292 288 286 285 284 284 284 283 284 284 285 286 286 285 286 286 285 285 285 285 285 287 287 286 285 284 283 283 284 284 284 283
297 296 294 293 291 287 285 284 284 283 283 283 283 283 283 283 283 283 285 286 286 285 285 285 285 285 286 287 287 285 285 283 283 283 284 283 283 282
293 292 290 287 285 284 283 282 282 282 282 282 282 281 281 281 282 283 284 285 285 285 285 285 285 286 286 287 286 285 284 283 283 283 282 282 281 281
289 287 286 284 282 283 282 281 281 281 281 281 280 280 279 279 280 282 283 283 284 284 285 284 285 285 286 286 285 285 284 284 283 282 281 281 281 281
287 286 284 283 283 282 280 280 280 280 280 279 279 278 278 278 278 279 281 282 283 283 285 285 286 286 286 285 285 285 285 284 283 282 281 281 282 282
285 284 284 281 280 279 279 280 279 279 278 278 277 277 277 277 277 277 278 280 281 283 284 285 285 286 285 285 285 285 284 284 284 282 282 282 282 282
282 282 281 280 279 279 279 278 278 277 277 276 275 275 275 276 276 276 277 278 279 281 283 284 285 286 286 285 285 285 284 283 284 282 282 282 281 281
282 281 280 278 278 277 277 276 276 275 274 274 273 273 273 274 274 275 276 276 277 279 281 283 284 285 285 285 285 284 284 283 282 282 282 282 281 282
279 279 278 277 277 276 275 274 274 273 272 272 271 271 271 272 272 273 274 275 276 278 279 281 283 285 285 285 284 284 283 283 282 282 282 282 281 282
277 276 276 275 275 274 273 272 272 271 271 270 270 270 270 270 271 271 272 273 274 276 278 280 282 283 285 285 284 284 283 282 282 282 282 281 282 282
274 274 273 273 272 272 271 270 270 269 269 269 269 269 269 269 270 270 271 271 272 274 277 279 280 281 283 284 284 284 282 282 282 281 281 282 282 282
272 271 271 271 270 270 269 269 268 268 268 268 268 268 268 268 269 269 270 270 272 273 275 277 279 281 282 284 284 283 282 281 281 281 281 282 282 282
269 269 268 268 268 268 267 267 267 267 267 267 267 267 268 268 268 269 269 270 271 272 274 276 278 279 282 284 283 282 282 281 281 281 281 281 282 283

GFSNE_850_thetae_090.txt.gz
Theta_e
321 321 321 318 314 315 313 313 312 310 306 306 307 307 304 300 299 298 296 295 295 295 295 295 294 295 294 294 294 294 293 293 293 293 292 292 291 290
321 322 321 319 315 315 313 313 311 310 306 307 307 305 301 300 299 298 297 296 296 296 295 295 295 294 294 294 292 293 292 293 292 290 291 291 291 290
322 322 321 317 315 315 313 312 311 307 306 307 303 301 300 300 299 298 297 295 294 293 293 292 292 292 292 292 292 292 291 291 291 290 290 290 290 290
321 322 321 317 315 315 313 312 308 308 305 302 301 301 300 300 299 297 294 293 293 292 292 291 291 291 292 292 292 292 291 291 290 289 287 289 290 290
320 320 320 319 316 314 312 310 308 305 303 302 301 300 300 298 297 294 292 292 291 291 290 290 289 289 289 290 292 291 290 290 290 288 288 288 289 288
320 319 320 317 315 313 310 308 305 304 302 301 300 299 297 296 293 291 291 290 290 288 287 286 286 285 285 286 289 291 290 290 289 288 289 289 289 287
319 319 315 312 311 309 307 304 304 301 300 299 298 296 295 291 290 290 290 287 286 286 286 285 286 286 286 286 286 288 290 289 287 288 288 287 286 286
319 317 312 310 307 305 304 302 300 299 297 297 295 292 291 291 290 287 285 284 284 285 285 285 286 286 286 285 285 288 288 287 287 288 287 286 286 285
313 309 308 308 307 305 301 298 295 296 294 293 292 291 289 286 284 284 284 284 284 284 285 285 285 285 285 285 286 287 288 287 287 287 286 286 285 284
307 306 304 304 302 299 294 296 295 294 292 290 287 285 284 283 283 284 284 284 284 285 285 284 285 286 285 285 284 286 287 287 287 287 286 284 283 284
307 305 302 300 296 296 296 295 292 288 285 284 283 283 283 283 283 283 283 284 283 283 284 284 285 285 285 285 285 285 287 287 287 286 284 283 283 284
297 297 296 295 295 293 289 286 285 284 283 283 283 282 282 282 281 281 281 284 284 284 284 284 285 285 285 284 285 287 287 286 286 285 283 283 283 283
295 294 293 290 288 286 285 283 283 283 282 282 282 281 282 281 281 280 280 282 283 283 283 284 284 284 284 285 284 285 286 286 285 283 283 283 283 283
291 290 288 286 284 282 282 284 282 282 282 281 281 281 281 281 280 279 279 279 280 282 283 283 283 283 284 284 284 285 285 285 284 284 283 283 281 281
291 288 286 286 286 285 282 281 280 280 281 281 280 280 280 279 278 277 277 278 278 278 280 281 282 283 284 284 284 285 285 285 285 284 283 283 282 281
287 287 286 285 283 281 281 280 280 280 279 279 279 278 277 276 276 276 276 276 277 278 278 278 281 282 284 284 285 285 285 285 285 284 283 282 282 281
284 283 282 281 280 279 279 278 278 278 277 277 276 275 275 274 274 274 274 275 275 276 277 278 279 281 283 284 284 285 284 285 285 284 284 283 282 281
280 280 279 279 278 277 277 276 276 275 275 274 273 273 272 272 272 273 272 272 273 274 276 277 278 280 282 283 284 284 284 285 284 283 283 282 282 281
278 278 277 276 276 275 275 274 274 273 272 272 271 271 270 270 270 271 271 271 272 273 274 275 277 277 278 280 283 284 285 284 284 283 282 282 281 281
275 275 275 274 274 273 272 272 271 271 270 270 269 269 269 269 269 269 269 270 271 272 273 274 275 276 276 278 279 284 284 284 283 283 282 282 282 281
272 272 272 271 271 270 270 269 269 268 268 268 268 267 267 267 268 268 269 269 269 270 271 273 274 275 277 278 279 282 284 284 282 282 282 282 281 282
270 269 269 268 268 268 267 267 267 267 267 267 267 267 267 266 267 267 268 268 269 269 270 272 274 275 277 277 280 283 284 282 282 282 281 281 281 282
267 267 266 266 266 266 266 265 265 265 265 265 265 266 266 266 267 267 267 268 268 269 270 271 273 275 277 278 280 283 283 282 281 281 281 281 281 282

GFSNE_850_thetae_093.txt.gz
Theta_e
315 317 321 322 321 319 318 316 314 312 311 312 312 311 307 305 304 302 300 298 297 295 295 295 294 294 294 294 295 294 294 294 293 295 295 295 294 294
320 319 320 321 321 320 320 315 314 314 311 312 311 309 307 307 304 300 299 298 298 297 296 295 295 294 294 295 294 293 293 293 292 292 293 294 293 293
322 321 321 319 321 320 320 318 315 314 312 312 309 307 306 306 302 301 300 299 298 297 295 294 293 292 292 292 291 291 291 291 292 291 291 292 292 292
319 321 318 317 317 317 319 318 315 314 313 312 310 306 305 302 301 300 300 299 298 295 293 293 292 291 291 290 290 290 290 291 292 291 291 290 291 291
321 321 319 317 316 317 319 318 316 314 313 310 306 305 302 302 300 300 299 298 295 292 292 291 290 289 288 288 287 287 287 290 291 291 291 289 290 289
321 321 319 319 319 318 316 317 315 313 310 306 304 302 301 300 299 298 296 295 291 290 290 288 287 286 286 287 286 286 286 286 288 290 290 290 289 288
318 321 319 320 317 317 316 315 311 309 306 303 302 301 300 298 297 295 293 291 290 288 286 286 286 286 286 286 286 286 286 286 286 287 289 289 287 288
318 317 317 317 313 310 309 307 307 305 302 301 300 298 296 296 293 292 290 287 286 286 285 285 286 286 286 286 286 286 285 285 285 288 289 287 288 287
315 313 311 310 308 307 304 304 304 303 301 299 296 295 293 293 290 286 284 284 285 286 285 285 285 286 286 285 285 286 285 285 286 287 288 287 287 286
309 307 306 307 305 304 302 300 299 297 295 294 293 292 288 285 284 284 284 284 284 284 285 285 286 286 286 285 285 285 285 285 286 287 287 287 287 286
305 303 301 301 302 300 299 295 293 293 292 286 285 286 285 283 283 283 283 283 285 286 286 285 286 286 286 286 285 285 285 285 285 286 287 287 287 286
301 298 294 293 293 293 293 292 290 287 285 285 284 285 284 283 283 281 283 283 284 284 285 285 286 285 285 285 286 285 285 286 286 286 287 287 286 285
294 293 293 293 293 293 293 291 287 284 283 284 284 283 283 284 283 283 282 281 280 281 282 282 282 284 284 284 285 285 285 285 285 287 287 286 285 283
293 293 292 291 290 289 287 285 285 285 284 283 282 282 282 281 281 281 281 280 280 280 279 278 279 280 282 283 284 285 285 285 285 285 286 285 283 283
289 288 287 287 286 285 284 283 282 281 281 280 280 279 279 279 279 279 279 278 277 277 277 277 277 278 279 281 283 284 285 285 284 285 285 284 284 284
286 285 284 284 283 281 280 280 279 279 279 278 277 277 277 276 276 275 275 274 275 275 275 276 276 277 277 279 280 282 284 285 285 285 285 284 284 283
282 281 281 280 280 279 278 278 277 277 276 275 275 274 273 272 272 272 272 272 273 273 274 274 274 276 277 277 278 281 283 285 285 285 285 284 284 283
279 278 278 277 277 276 276 275 275 274 273 272 272 271 271 271 271 271 271 271 271 272 272 272 273 274 276 278 279 281 283 285 284 284 284 284 284 284
276 275 274 274 274 274 273 273 272 271 270 270 270 269 269 269 269 269 269 270 270 270 271 271 272 273 275 277 279 280 283 284 284 284 284 283 284 284
272 272 272 271 271 271 270 269 269 268 268 268 267 267 267 267 268 268 268 268 268 269 269 271 271 272 273 274 274 280 282 283 284 284 283 283 283 282
269 269 268 268 267 267 267 266 266 266 266 265 266 266 266 266 266 266 266 266 266 268 269 270 270 270 271 272 274 277 281 283 284 284 284 283 283 282
267 266 266 265 265 265 265 265 264 264 264 264 264 264 265 265 265 265 266 266 267 267 267 268 269 270 271 272 274 275 279 282 283 283 282 282 283 282
267 266 266 265 265 264 263 263 263 264 264 263 263 263 264 264 264 265 265 265 266 266 266 267 268 269 270 272 272 276 279 282 282 282 282 281 281 282

GFSNE_850_thetae_096.txt.gz
Theta_e
318 316 316 316 315 315 318 320 314 314 313 313 316 315 314 313 312 311 309 305 305 306 303 300 297 295 293 293 293 293 293 293 294 294 296 297 296 297
318 318 318 317 318 320 320 319 319 313 313 313 314 314 313 313 312 309 305 304 305 303 299 298 296 295 295 295 294 294 294 294 295 293 293 295 295 296
317 316 319 319 318 320 320 319 319 316 312 314 315 313 311 313 310 307 303 304 301 300 299 298 297 296 295 294 293 292 292 294 293 292 293 292 294 294
316 318 318 322 320 318 319 318 319 318 317 315 317 312 311 312 310 307 305 301 300 300 300 299 298 295 293 293 292 291 291 291 291 290 291 291 292 293
321 322 320 322 318 316 319 318 317 315 316 315 314 311 310 310 307 304 300 299 299 299 298 298 296 293 292 291 290 290 289 289 288 288 289 290 292 292
322 321 321 322 317 319 318 318 317 318 317 315 313 308 309 306 304 301 299 300 299 296 294 295 294 291 290 289 288 287 287 287 287 286 286 287 289 291
322 321 320 317 316 316 315 314 313 312 310 310 307 305 304 303 300 299 299 297 295 294 293 292 290 289 287 288 289 288 287 287 287 287 286 286 286 287
318 317 317 315 314 313 312 310 309 308 307 306 302 303 301 300 299 298 295 293 292 291 290 290 288 288 287 287 289 289 287 286 286 286 286 286 285 286
316 314 312 311 310 309 308 307 306 305 304 302 301 299 298 296 294 293 292 289 288 288 288 289 289 289 288 288 288 287 286 285 285 286 285 285 286 288
313 311 308 307 304 303 302 302 300 299 299 297 295 294 292 291 290 289 288 287 287 287 287 287 288 289 289 288 288 288 287 285 285 285 285 285 287 287
307 304 301 299 298 297 297 295 294 294 293 293 293 293 293 291 288 285 285 286 287 288 287 287 288 288 288 287 288 288 287 285 285 285 285 285 287 288
299 296 295 294 294 294 294 294 294 293 293 292 291 290 288 286 286 285 284 284 284 285 286 286 287 287 288 288 287 287 288 287 286 286 286 286 286 287
295 294 293 293 293 293 292 291 290 289 288 287 285 285 284 283 283 283 282 282 282 282 283 283 282 283 284 285 286 286 286 287 287 287 287 287 286 287
293 291 290 290 289 288 287 286 285 284 283 282 282 282 281 281 280 280 280 280 279 279 280 280 280 280 281 281 282 283 284 285 286 286 286 288 287 287
289 288 287 286 285 284 283 282 281 281 280 280 280 279 279 278 278 278 277 277 277 277 277 277 277 277 278 280 281 282 283 284 285 287 286 287 287 286
284 283 282 282 281 281 280 280 279 278 278 278 278 277 276 276 275 275 275 276 276 277 277 277 277 277 278 279 280 280 281 282 283 286 286 286 286 286
281 280 281 280 280 280 280 279 278 277 277 276 275 275 275 275 275 274 274 274 275 276 276 276 276 276 276 277 278 279 280 280 282 283 286 286 286 286
279 278 278 277 277 277 277 276 275 275 274 273 273 273 273 272 272 272 272 273 273 274 274 274 275 275 276 276 277 278 279 280 281 283 285 286 286 286
276 275 275 274 274 274 273 273 272 272 271 271 271 270 270 270 270 271 271 272 272 272 272 273 273 274 275 276 277 278 280 280 280 284 286 285 285 285
273 273 272 272 271 271 270 270 269 269 269 269 268 268 268 269 269 270 270 270 270 270 271 271 273 273 274 274 274 274 276 277 278 282 286 285 285 285
270 270 270 269 269 268 268 268 267 267 267 267 267 267 267 267 268 268 268 268 268 269 270 271 271 271 271 272 273 275 277 278 278 281 284 285 285 284
268 268 268 267 267 267 266 266 266 266 266 266 266 266 266 266 267 267 267 268 268 269 269 270 270 271 272 273 273 274 276 278 280 282 284 284 285 285
266 266 266 266 266 265 265 265 265 264 264 264 265 265 265 265 266 267 267 267 268 268 268 269 270 270 271 272 273 274 275 277 280 283 284 284 284 283

GFSNE_850_thetae_099.txt.gz
Theta_e
318 320 320 319 320 320 320 318 316 316 317 317 316 317 317 318 316 316 313 313 311 310 311 310 305 303 305 303 300 299 296 294 293 293 294 295 297 298
319 320 320 320 320 319 319 318 319 318 317 317 318 317 317 316 315 316 315 314 312 312 311 310 304 303 305 301 299 296 294 293 293 293 293 293 293 296
320 320 320 320 320 320 318 318 318 318 316 317 317 317 315 316 316 316 315 314 311 312 310 307 303 304 302 299 297 295 294 294 294 294 294 293 293 294
320 320 321 321 319 317 318 319 320 319 317 315 316 318 316 315 314 314 314 312 309 309 307 303 303 301 298 298 297 297 295 295 294 293 292 292 294 292
321 321 320 317 318 322 322 320 320 317 316 314 314 316 314 313 313 312 310 308 302 302 301 300 299 298 298 297 297 297 295 293 292 292 291 291 291 290
320 319 321 322 322 321 319 317 317 316 314 314 313 312 311 311 311 310 306 303 302 300 299 299 300 299 298 298 296 294 293 291 291 289 288 287 287 287
322 322 322 321 319 317 316 315 313 313 313 312 311 310 310 309 308 306 303 301 300 298 299 298 298 298 297 296 295 293 290 288 288 292 291 287 287 286
321 320 318 316 315 314 313 312 311 310 309 308 308 307 305 303 302 302 300 298 297 296 295 295 294 292 294 294 294 292 291 291 290 288 289 288 287 286
318 316 313 313 310 309 308 307 306 305 304 303 301 299 298 297 296 295 294 293 293 292 292 293 293 293 293 291 288 288 289 290 289 290 289 286 286 286
311 310 307 306 304 301 300 299 298 297 297 296 295 295 294 294 294 293 293 293 292 292 291 289 290 289 289 289 289 289 289 289 288 288 287 286 285 285
305 302 300 298 296 295 295 295 295 295 295 294 294 293 293 292 292 291 289 287 287 288 288 288 288 288 288 288 289 289 289 288 288 288 287 286 285 285
298 297 295 295 295 294 294 293 292 291 290 290 289 289 288 287 287 286 285 284 284 284 286 286 286 286 287 288 288 288 288 288 288 287 287 286 286 285
295 294 293 293 292 291 290 289 288 287 286 285 284 284 283 283 283 282 282 282 282 282 282 282 282 282 283 283 285 287 285 285 286 287 287 287 287 287
292 290 289 288 286 285 285 283 283 283 282 282 282 282 282 281 281 280 280 280 279 279 279 279 279 279 279 280 281 282 282 283 284 285 285 285 287 287
287 286 285 284 283 282 281 281 281 280 280 280 280 280 279 278 278 278 277 277 277 277 277 277 277 277 277 278 279 280 281 282 282 283 284 285 287 287
283 282 282 281 282 281 281 281 280 279 278 278 278 277 277 277 276 276 276 276 276 276 276 277 278 278 278 278 278 278 279 280 281 282 283 283 285 287
281 280 280 279 279 279 278 278 277 276 276 275 274 274 274 274 274 274 274 273 273 274 275 275 276 276 276 277 277 277 277 278 279 280 281 282 283 285
279 278 278 277 276 276 276 275 275 274 273 272 272 272 272 272 272 271 272 272 272 273 273 273 274 274 274 275 276 277 277 278 279 280 280 282 283 283
276 276 275 274 274 273 273 273 272 272 271 271 270 270 270 270 270 270 270 271 271 271 271 271 272 272 274 275 275 276 276 275 277 279 280 281 282 284
274 274 273 272 272 272 271 270 270 269 269 269 269 269 269 269 269 269 270 270 270 270 270 271 272 272 273 272 272 272 273 274 276 277 278 279 281 286
272 272 271 271 270 269 269 269 268 268 268 268 268 268 268 268 268 268 268 269 269 270 270 270 271 271 271 271 272 273 274 275 276 277 278 279 280 285
270 270 269 269 268 268 268 268 267 267 267 267 267 267 267 267 267 267 268 268 269 269 269 269 270 270 271 271 272 273 273 274 275 276 278 279 281 286
268 268 267 267 267 267 266 266 266 266 266 266 266 266 266 266 266 267 267 268 268 268 269 269 269 270 270 271 272 272 273 274 276 277 280 283 283 285

GFSNE_850_thetae_105.txt.gz
Theta_e
318 318 319 318 317 317 317 318 319 320 319 319 318 318 318 317 317 317 317 318 318 317 317 316 316 315 315 314 312 309 310 309 309 307 307 307 306 307
318 318 318 317 317 317 317 316 317 317 320 319 319 319 318 319 319 318 319 318 317 317 316 316 315 315 315 315 314 311 311 310 309 308 307 306 307 305
318 317 317 317 316 316 316 317 319 319 320 320 320 319 319 320 319 318 317 316 316 314 313 314 313 313 313 313 312 311 311 309 308 307 305 305 304 304
317 318 317 316 318 319 319 320 320 320 321 321 321 320 320 318 316 314 313 313 312 312 311 311 311 311 311 312 312 312 310 307 307 306 305 303 302 301
318 317 317 320 321 321 321 321 321 322 321 320 319 317 315 314 313 312 311 310 311 311 310 310 309 309 310 309 309 309 307 307 304 303 302 300 299 299
319 320 321 321 321 321 321 320 321 318 319 317 316 313 312 310 308 308 307 307 307 306 306 305 304 304 303 304 304 304 304 302 301 301 299 298 298 297
321 321 321 321 322 322 320 318 313 314 312 310 308 305 305 304 303 301 300 300 300 299 299 299 298 298 298 298 298 298 298 298 298 298 298 297 296 296
322 320 319 319 316 310 307 305 310 306 304 302 301 300 299 296 295 295 294 294 293 294 294 295 294 294 294 293 293 294 294 294 294 294 294 294 294 294
319 317 311 308 303 303 303 302 300 298 299 298 296 295 293 292 291 291 291 290 289 289 289 288 290 290 290 290 290 290 290 290 290 291 291 291 291 291
311 305 301 301 300 301 300 297 297 295 294 293 292 289 288 287 286 285 285 285 285 285 284 285 285 285 286 286 286 286 287 287 289 289 289 289 290 290
302 300 300 298 298 295 292 292 290 289 288 287 286 285 284 283 283 283 283 282 282 281 282 282 281 281 282 282 282 282 283 286 287 288 287 287 288 289
299 297 295 293 290 290 289 287 286 285 285 283 282 282 282 283 282 281 280 279 278 278 278 277 277 277 277 277 278 278 279 279 280 281 281 282 284 286
293 289 287 285 284 284 283 283 282 281 280 280 280 280 280 280 279 278 277 276 276 276 276 275 275 275 275 275 276 276 277 278 278 278 279 280 281 282
288 285 283 282 282 281 281 280 280 279 278 277 277 276 276 275 274 274 274 274 274 273 273 273 273 273 274 274 274 275 275 276 276 277 277 278 279 281
283 282 281 281 280 279 278 278 277 276 276 275 274 273 273 272 272 272 272 272 272 271 271 272 272 272 272 272 272 272 273 273 274 274 275 276 276 277
281 280 279 279 278 277 276 276 275 274 273 272 272 271 271 271 271 270 270 270 270 271 270 270 270 270 270 270 271 272 273 273 274 274 274 275 276 277
279 278 278 277 277 276 275 274 273 273 272 271 271 270 270 270 270 269 269 269 269 269 269 269 269 270 270 271 271 271 271 271 271 272 272 273 274 275
278 277 276 275 275 274 273 272 272 272 271 271 270 270 269 268 268 268 268 268 268 268 268 269 269 269 269 269 270 270 270 270 271 272 272 273 274 275
277 275 274 273 272 272 272 271 271 271 270 270 269 268 268 268 268 267 267 267 267 267 268 268 268 268 268 269 269 269 270 270 271 271 272 273 273 275
274 273 272 272 272 272 272 271 271 270 269 269 268 268 268 267 267 267 267 266 267 267 267 267 268 268 268 268 268 269 269 270 270 271 272 272 273 274
273 273 272 272 272 272 271 270 270 270 270 269 269 268 268 267 267 267 266 266 266 266 266 267 267 267 267 268 268 269 270 271 270 271 272 272 274 275
272 272 272 272 271 271 271 270 270 270 270 269 269 268 268 268 267 267 266 265 265 265 266 266 267 267 267 267 268 268 270 271 272 272 273 273 273 274
272 272 272 272 271 271 270 270 270 269 269 269 269 269 269 268 268 267 266 266 265 265 266 266 266 266 267 267 268 269 270 271 272 275 279 278 278 278

GFSNE_850_thetae_108.txt.gz
Theta_e
318 316 316 317 319 319 318 317 318 318 318 317 316 317 317 318 319 319 319 319 318 318 319 318 317 316 316 315 315 315 314 314 313 312 313 312 311 311
318 316 317 318 318 318 318 318 318 317 318 316 317 319 319 319 319 320 320 320 318 318 317 316 315 315 314 313 313 313 313 313 313 312 311 312 311 312
317 316 317 317 318 318 318 317 316 318 319 318 318 319 320 320 320 319 318 318 317 316 315 314 313 312 311 311 310 311 310 310 311 310 308 308 309 309
317 317 316 319 318 318 317 317 318 320 321 320 320 320 321 319 317 317 315 315 314 312 311 310 311 310 309 309 309 309 308 308 307 307 307 307 307 306
316 316 318 319 318 318 318 320 321 321 321 321 320 318 317 316 316 315 312 311 310 310 309 309 308 307 307 306 305 304 305 304 304 304 304 304 304 305
318 318 318 319 318 319 320 321 319 319 320 316 314 312 312 311 309 308 308 306 305 304 303 302 302 301 301 299 299 300 300 299 299 298 298 299 300 301
319 320 319 319 320 320 319 317 314 314 311 311 311 307 305 305 303 301 299 299 299 297 298 297 296 295 294 294 294 294 294 294 294 294 294 294 294 295
320 320 320 318 315 310 308 308 307 307 306 307 304 301 297 295 294 294 293 293 291 291 291 291 290 290 290 289 288 288 289 289 289 289 289 290 290 291
320 319 313 308 305 304 304 303 303 301 303 301 298 294 291 290 290 289 287 286 285 284 284 284 284 284 285 285 285 283 285 286 286 287 287 288 289 289
311 307 304 302 301 301 300 300 299 298 292 291 290 288 287 286 285 284 283 283 282 282 280 280 280 279 278 279 279 279 280 281 282 282 283 284 285 286
301 299 299 299 298 298 298 293 289 288 287 286 284 283 283 283 282 282 281 280 279 278 278 278 276 276 276 276 276 277 277 276 276 277 278 279 280 281
298 296 295 295 293 291 288 286 285 283 282 281 281 280 280 280 280 278 277 276 275 275 275 274 274 273 274 274 275 274 274 274 275 275 277 277 278 279
296 294 291 291 287 284 283 282 281 280 280 279 278 278 277 277 276 275 274 273 273 272 272 272 272 272 272 273 273 273 272 272 273 273 274 275 276 277
292 288 285 284 283 281 280 279 279 278 277 277 276 276 276 275 275 274 274 273 272 271 271 271 271 271 271 270 271 271 271 271 272 273 274 274 274 275
285 283 281 280 279 279 279 278 277 277 276 276 275 274 273 273 272 273 273 272 272 271 271 270 270 269 269 270 270 270 271 271 272 272 272 272 273 273
281 280 279 279 278 278 277 276 276 275 275 274 273 273 272 272 272 271 271 270 271 271 271 270 269 269 269 269 270 270 270 270 270 270 270 271 272 273
280 279 278 278 277 276 275 275 274 274 274 273 272 272 271 271 270 270 270 269 269 269 269 269 269 268 268 269 269 269 269 269 269 269 270 271 271 272
279 278 278 276 276 275 274 274 273 273 272 271 271 271 271 270 270 270 269 269 268 268 268 268 268 268 268 268 268 269 269 269 269 269 270 270 271 271
279 277 276 275 275 274 273 273 272 272 271 271 271 270 270 270 270 269 269 268 268 268 267 267 267 266 266 267 268 268 268 269 269 269 269 270 270 271
276 275 275 274 274 273 272 272 272 271 271 271 270 270 270 270 269 269 269 268 268 268 268 267 267 266 266 266 267 271 269 268 269 269 270 270 271 272
274 274 273 273 272 272 272 272 271 271 271 271 270 270 270 270 270 269 269 269 268 268 267 267 267 267 267 267 267 270 273 271 269 270 270 270 271 272
274 273 273 272 272 272 271 271 271 271 271 271 271 270 270 270 270 269 269 268 268 267 267 268 268 268 268 267 268 269 271 273 275 274 274 273 272 272
273 273 272 272 271 271 271 271 271 271 271 271 271 271 271 270 270 270 269 268 268 267 267 268 268 268 269 268 267 269 270 273 274 278 280 280 279 280

GFSNE_850_thetae_111.txt.gz
Theta_e
322 318 317 317 317 317 318 319 317 318 317 317 317 316 317 317 317 318 319 319 319 320 319 318 317 318 317 316 316 315 314 315 314 314 314 313 313 314
321 319 318 318 317 317 317 318 318 319 318 317 317 317 319 319 319 319 319 319 319 318 318 317 317 317 316 315 314 314 313 313 312 312 312 312 311 311
320 319 318 318 317 317 318 318 318 318 318 317 317 319 320 320 320 318 319 319 317 317 316 315 315 314 313 311 311 310 309 308 308 308 309 309 309 310
319 318 318 317 316 316 317 316 317 318 318 318 319 320 320 319 319 319 317 316 315 314 314 312 310 309 309 308 307 307 306 306 306 306 304 304 305 306
319 318 318 317 316 317 317 319 318 318 318 320 319 318 317 317 316 315 314 313 310 308 307 305 304 303 303 302 301 301 301 300 301 300 301 301 300 301
319 318 318 317 316 317 318 319 318 318 319 317 314 313 311 309 308 310 308 304 304 301 300 299 297 296 296 294 294 294 294 293 293 294 294 295 295 296
317 318 318 318 318 319 318 317 316 313 312 309 307 308 306 306 303 299 300 298 296 295 295 293 292 291 290 290 289 289 288 288 289 289 289 290 291 291
316 317 317 318 318 318 315 311 308 308 306 305 302 301 298 297 294 294 291 291 289 287 286 286 285 284 284 283 283 282 282 282 283 284 285 286 286 287
318 318 315 313 311 308 305 304 304 302 302 300 300 296 294 290 288 286 285 283 283 282 281 281 281 281 281 281 280 279 279 278 278 278 279 279 280 282
316 315 311 307 303 301 301 301 299 299 298 295 290 287 285 284 283 282 282 281 280 280 279 278 278 277 278 278 278 277 277 277 276 276 276 276 276 277
309 305 302 300 299 298 298 298 295 289 285 283 283 283 282 281 280 280 280 279 279 279 278 275 275 276 276 275 275 276 275 275 275 275 274 274 275 276
299 297 296 298 297 297 293 287 285 284 282 281 280 280 280 279 278 278 277 276 275 275 275 274 274 273 272 273 273 274 274 274 273 273 273 274 275 275
294 293 292 293 289 286 284 283 283 282 280 280 280 279 278 278 277 277 276 275 274 273 272 271 270 270 270 270 271 272 272 272 272 272 273 273 273 273
292 290 286 283 283 282 282 282 280 280 279 279 278 278 277 277 276 275 275 274 273 272 271 270 270 270 269 269 270 271 272 271 270 271 271 271 271 271
289 285 283 281 280 280 280 280 279 279 278 277 277 276 275 274 274 274 274 273 273 272 272 271 270 270 269 269 269 270 270 271 270 270 270 270 270 270
284 282 281 280 279 279 278 278 277 276 276 276 275 275 274 273 273 273 272 272 272 273 272 271 270 269 269 269 268 270 270 269 269 269 269 269 270 270
282 280 279 278 278 277 276 275 276 276 276 275 274 273 273 273 272 272 272 271 271 270 271 271 270 269 269 268 269 270 270 269 269 269 269 270 270 270
280 278 277 276 276 275 275 275 275 275 274 274 273 273 272 272 272 272 271 271 270 270 270 270 270 270 271 269 269 269 270 269 269 269 268 268 270 271
278 277 276 275 275 275 275 275 274 274 273 272 272 273 272 272 272 271 271 271 270 270 270 269 269 268 267 268 270 269 268 269 268 268 268 268 269 271
277 276 275 275 275 275 274 274 273 272 272 272 272 272 272 272 272 271 271 270 270 270 270 270 269 268 267 267 267 274 271 268 268 268 269 270 270 272
276 275 275 274 274 274 273 273 272 272 272 272 272 272 272 272 271 271 270 270 270 269 270 271 270 270 270 269 269 273 277 274 270 269 272 272 274 276
275 274 274 274 273 273 273 272 272 272 272 272 272 272 272 271 271 271 270 270 270 270 270 271 271 271 271 270 270 271 276 279 279 278 278 278 276 276
274 274 274 273 272 272 272 272 272 272 272 271 272 272 271 271 271 271 271 270 270 270 270 271 271 272 272 271 270 273 276 279 280 280 280 280 280 280

GFSNE_850_thetae_114.txt.gz
Theta_e
320 322 320 319 316 316 317 317 317 317 317 317 317 317 317 318 318 319 319 318 319 319 319 319 318 319 317 318 317 317 316 315 314 314 313 313 313 313
318 321 321 320 318 316 317 317 317 317 318 316 318 317 318 318 318 319 319 320 319 318 318 318 317 317 316 315 314 315 314 313 312 311 311 310 309 309
318 319 321 320 319 318 316 317 317 317 318 318 317 318 318 317 318 319 319 319 318 317 316 316 316 315 313 313 312 310 310 309 308 307 307 307 306 307
321 321 320 318 317 317 318 317 317 317 317 317 318 318 318 318 318 316 316 314 314 313 314 310 311 311 308 307 305 304 302 301 301 301 301 301 301 301
322 321 320 319 318 318 317 316 316 316 318 317 317 318 317 316 313 312 312 311 310 306 307 304 301 300 299 297 296 295 294 293 293 294 293 294 293 294
320 319 319 318 319 318 317 316 317 317 318 317 316 313 312 311 310 311 306 305 303 300 299 297 293 290 289 287 286 285 285 284 284 284 283 284 284 284
320 318 318 319 318 318 317 317 317 317 316 313 311 309 307 305 303 305 302 298 296 292 290 287 286 285 285 284 284 283 283 282 282 281 281 280 280 280
318 318 318 317 317 317 316 316 315 313 311 309 307 304 301 301 298 293 289 287 286 284 284 285 284 283 283 282 282 281 280 280 279 278 277 277 277 278
318 317 316 315 315 313 312 311 308 306 304 303 301 298 297 293 287 284 283 282 281 281 281 282 281 281 280 280 280 279 278 277 276 276 276 276 276 276
316 315 313 311 306 305 304 303 301 300 298 296 292 288 284 283 282 282 281 280 280 280 280 278 278 278 278 278 278 277 276 276 276 276 275 275 275 275
312 307 303 302 299 298 298 299 297 293 287 284 283 282 281 281 280 280 281 280 280 279 278 276 276 275 275 275 275 275 276 275 275 274 274 274 274 274
304 299 297 298 296 294 294 290 287 285 283 281 281 280 279 280 279 279 278 278 276 276 274 274 274 273 272 272 273 274 274 274 274 274 274 274 273 273
299 295 293 292 291 289 286 285 284 283 281 281 280 279 279 279 277 277 276 275 275 274 273 272 272 272 270 270 271 274 273 274 273 273 273 273 272 272
293 291 289 289 288 286 282 282 281 280 279 279 278 278 277 277 276 276 275 274 273 272 272 272 271 271 270 271 271 274 274 274 272 273 272 272 272 271
293 291 289 285 282 282 282 281 279 279 278 278 277 277 276 276 275 275 274 274 273 273 273 272 272 272 271 271 271 274 273 274 273 272 272 271 270 270
289 284 282 282 281 280 278 278 278 278 277 277 276 276 275 274 274 274 274 274 274 274 273 272 272 272 272 272 272 274 273 270 273 270 270 271 270 270
284 282 280 279 279 278 278 277 277 276 276 276 275 275 274 274 274 274 274 273 273 273 273 274 273 272 272 272 274 273 272 272 270 269 269 270 272 270
281 279 279 278 278 277 277 277 276 276 275 274 274 274 274 274 274 274 273 273 273 273 273 272 272 273 274 272 273 272 271 270 271 271 268 268 271 274
279 279 279 278 277 277 276 275 275 275 274 274 274 274 273 273 274 273 273 273 273 272 272 271 271 271 271 273 276 276 272 274 273 274 272 272 273 277
278 278 277 277 276 276 275 275 274 273 273 273 273 273 273 273 273 274 273 273 272 272 272 271 271 271 271 270 272 280 276 274 273 276 278 278 278 279
277 276 276 276 275 275 274 273 273 273 273 273 272 273 273 273 273 273 273 272 272 271 271 272 272 273 273 274 275 278 280 279 277 278 279 278 279 279
276 276 275 275 274 273 273 273 272 272 272 272 272 272 272 273 273 273 272 272 271 271 271 272 273 274 274 275 277 278 280 281 280 280 280 280 280 278
275 274 274 274 273 273 273 272 272 272 272 272 272 272 272 273 273 272 272 272 271 271 271 273 275 275 275 276 277 279 280 281 281 281 281 281 281 281

GFSNE_850_thetae_117.txt.gz
Theta_e
309 313 319 320 319 317 317 317 317 317 317 317 316 316 317 317 317 318 317 317 319 319 319 319 319 319 318 318 318 317 316 315 315 313 314 314 313 312
308 310 318 318 319 318 318 317 317 317 317 317 317 317 316 318 317 318 318 317 318 318 318 318 318 316 316 315 316 315 313 312 313 310 311 310 309 308
310 310 315 320 319 319 318 318 317 316 317 316 317 317 318 317 318 317 316 317 316 316 316 316 314 314 312 310 309 308 308 307 306 303 301 300 299 299
314 313 314 315 316 316 319 318 318 316 316 317 317 317 316 316 316 315 314 311 312 311 310 308 305 304 303 301 301 298 296 295 293 291 288 288 288 287
323 316 315 316 317 317 319 317 317 317 317 317 317 317 316 313 313 310 308 307 306 306 303 301 301 297 296 291 288 287 286 286 286 285 285 285 284 284
320 320 317 317 318 319 318 318 318 317 316 316 317 316 313 311 307 305 304 302 300 298 293 290 288 286 286 286 285 285 284 283 283 283 282 281 281 280
321 320 320 319 319 318 318 318 317 316 316 316 314 312 308 306 302 301 299 295 292 290 287 286 285 285 285 284 284 283 282 282 280 279 278 278 278 278
321 321 318 319 318 318 317 317 316 316 314 311 308 305 301 298 295 294 290 286 284 284 284 284 284 283 283 282 281 281 280 279 278 277 277 277 277 277
321 319 318 317 316 317 316 316 314 311 307 304 302 299 296 290 285 284 284 283 282 282 282 282 281 281 281 281 280 279 278 278 277 277 277 277 277 276
317 317 316 316 312 312 311 309 306 303 300 297 292 289 287 285 284 283 282 281 280 279 279 278 277 277 279 279 280 278 278 277 277 277 277 276 276 276
313 311 310 308 304 302 304 303 299 296 290 288 287 285 283 283 283 282 281 280 279 277 277 276 276 275 276 277 277 276 276 277 277 277 276 276 276 275
308 305 301 302 297 295 297 295 294 289 284 284 287 286 283 281 281 280 279 278 277 277 275 276 275 274 273 273 274 276 275 274 274 276 276 276 274 273
305 299 295 294 294 291 290 286 286 286 288 284 281 280 279 279 279 278 278 277 276 275 274 274 274 272 272 272 274 276 274 274 275 276 274 273 273 272
297 292 290 289 290 287 286 286 287 284 281 280 279 279 278 278 277 276 276 275 274 274 274 273 272 272 272 272 273 276 276 276 275 274 273 272 272 272
293 291 289 287 284 285 285 283 280 280 279 279 278 278 277 277 276 276 276 276 275 274 274 273 273 273 274 274 275 274 276 278 274 273 273 273 272 272
293 291 289 285 286 285 280 279 279 278 278 278 277 277 276 276 276 276 276 276 276 275 274 274 274 274 277 277 275 275 273 273 276 274 276 278 276 273
292 288 286 284 279 279 279 278 278 277 277 276 276 276 275 275 275 275 275 275 274 275 275 275 275 276 278 277 277 276 275 274 274 279 278 278 279 277
289 284 279 279 279 278 278 277 276 276 276 275 275 275 275 275 275 275 275 275 275 274 274 274 276 278 279 280 279 277 278 278 279 279 275 274 278 280
280 279 279 278 278 277 277 276 276 276 275 275 275 275 275 275 274 275 275 275 274 274 273 273 275 276 274 274 280 279 278 279 280 281 277 279 280 281
279 278 278 277 277 277 276 276 275 275 274 274 274 274 274 274 274 274 274 274 274 274 274 274 275 275 275 273 275 281 279 279 279 280 281 282 282 282
278 278 277 277 276 276 275 275 274 274 274 274 274 274 273 273 274 274 274 274 274 274 274 274 275 275 276 275 275 280 281 280 281 280 280 280 281 281
277 277 276 276 275 275 274 274 274 273 273 273 273 273 273 273 273 273 274 274 274 273 273 274 275 276 276 275 276 278 281 281 281 281 281 280 280 280
276 276 275 275 274 274 274 273 273 273 273 272 272 272 272 273 273 273 273 273 274 274 273 274 276 276 276 275 275 278 281 281 281 281 280 281 281 281

GFSNE_850_thetae_120.txt.gz
Theta_e
319 321 321 321 321 321 318 317 316 317 318 316 316 317 317 317 317 317 317 317 318 318 317 317 319 319 318 318 318 316 315 316 315 314 314 313 312 311
315 319 320 321 319 320 319 318 316 317 317 317 316 317 316 317 317 316 317 317 317 317 317 317 316 316 317 316 314 312 311 311 311 311 310 308 306 303
311 314 317 314 316 320 319 318 317 317 318 317 317 317 317 316 316 317 317 317 316 316 314 313 313 310 309 308 308 305 305 302 299 297 293 290 290 289
319 310 312 310 315 319 319 318 316 316 318 317 317 317 316 316 316 315 314 313 311 309 307 305 305 305 302 299 299 295 290 288 287 287 287 287 287 287
323 319 310 309 313 317 313 318 314 315 316 317 317 317 316 315 312 311 308 305 304 303 303 300 297 294 292 290 288 286 286 285 285 285 284 284 284 284
320 322 314 311 314 316 316 315 314 315 317 317 317 316 315 311 308 306 304 302 301 298 296 293 291 289 287 286 286 285 284 284 284 283 282 281 281 280
319 320 316 313 320 317 314 315 316 317 317 317 316 315 312 307 304 302 300 296 293 290 287 285 286 285 284 284 283 282 282 281 281 281 281 280 279 279
320 318 318 319 319 317 316 317 318 318 317 317 315 311 306 302 300 297 292 288 286 287 285 283 284 283 283 282 282 281 280 280 280 280 279 278 278 278
319 320 319 317 317 317 317 317 317 316 314 312 309 304 301 295 289 287 287 286 284 286 285 284 282 282 282 282 280 280 280 280 280 279 280 280 279 279
317 317 318 318 317 318 317 316 313 310 306 304 300 294 290 288 285 287 287 285 282 282 282 281 280 280 281 281 280 280 281 280 280 281 281 281 280 280
315 316 317 317 314 314 313 312 307 302 294 291 290 287 289 290 287 284 283 282 281 279 280 279 278 278 279 280 280 280 281 281 282 281 280 280 279 278
313 311 310 310 306 303 304 303 301 294 289 286 291 289 284 283 282 282 281 281 280 279 278 278 277 276 277 279 278 278 278 277 277 277 278 277 277 276
311 306 302 300 298 296 295 293 293 288 291 288 285 283 282 281 281 280 280 279 277 276 277 277 276 276 277 276 277 277 278 278 278 278 278 278 279 277
306 298 293 292 290 286 288 291 291 289 285 283 281 280 280 279 279 278 278 277 277 277 277 276 276 275 275 276 277 278 278 278 278 278 279 278 278 278
299 293 289 289 290 290 290 288 285 283 281 281 280 279 278 278 278 277 277 277 277 277 277 276 276 277 275 275 276 277 277 279 279 279 278 278 278 279
292 293 292 291 290 288 284 281 280 280 280 279 279 278 277 277 277 277 277 277 276 275 275 276 277 277 277 277 276 277 279 279 279 279 278 279 280 281
294 290 288 288 286 281 279 279 279 278 279 278 277 277 277 277 277 277 277 277 276 275 274 274 276 276 278 279 278 278 279 279 279 278 278 280 281 282
290 288 285 279 278 279 279 278 278 278 277 277 277 276 276 276 276 276 276 276 275 275 275 275 277 277 278 278 280 280 281 281 281 280 280 281 282 283
289 283 280 279 278 278 278 277 277 276 276 276 276 276 276 276 276 276 275 275 275 274 274 274 274 275 276 278 280 280 281 281 281 281 279 281 283 283
281 279 279 278 278 278 277 277 276 276 276 275 275 275 275 275 275 275 275 275 275 274 273 274 274 276 276 275 276 281 279 278 279 279 280 280 282 283
278 278 277 277 277 277 276 276 276 275 275 275 275 275 275 275 275 275 275 275 274 273 273 273 275 277 276 275 276 279 281 280 279 280 281 281 281 282
277 277 277 277 276 276 276 275 275 275 274 274 274 274 274 274 274 274 274 273 272 273 273 273 274 274 274 275 276 277 279 281 280 281 282 281 280 281
277 277 276 276 276 275 275 274 274 274 274 273 273 273 274 274 274 274 273 272 272 273 272 273 273 274 274 275 275 276 277 279 280 281 282 282 282 282

GFSNE_850_thetae_123.txt.gz
Theta_e
320 322 323 323 321 321 322 322 322 322 321 320 320 320 317 317 316 316 316 317 317 317 317 317 318 317 316 317 316 316 316 315 314 313 312 311 310 307
321 321 322 323 321 322 321 322 322 320 320 319 317 316 316 316 316 316 317 317 316 317 317 317 317 317 316 315 312 310 308 307 307 306 303 299 296 291
321 320 321 323 322 321 322 321 319 318 318 318 316 317 316 316 316 316 316 316 316 316 316 316 315 313 311 309 306 304 301 297 295 293 290 289 289 288
320 321 320 322 322 322 321 319 319 319 317 317 317 317 317 316 316 316 314 314 314 314 312 311 309 307 305 303 301 296 290 289 289 288 288 287 286 285
321 321 319 320 320 320 320 319 318 318 317 317 315 316 315 314 315 310 311 309 311 308 305 304 303 300 298 290 288 287 287 287 287 286 285 284 283 282
322 321 319 320 318 318 316 316 316 317 317 315 315 315 315 314 310 308 306 307 306 302 301 298 294 290 288 287 289 288 286 285 284 283 282 282 282 282
323 322 320 319 317 316 314 317 312 315 317 315 314 315 314 310 308 305 303 301 298 296 294 289 287 288 289 286 285 283 283 283 282 281 281 281 282 282
323 321 320 320 320 318 314 312 317 317 317 315 315 315 311 308 305 302 299 297 291 289 287 287 291 288 284 284 282 282 282 281 281 281 282 282 282 281
322 322 321 319 318 319 314 314 316 316 315 315 315 312 309 304 300 296 292 289 289 290 291 285 285 283 283 282 282 282 281 281 281 282 282 282 282 282
319 318 317 317 316 316 314 315 315 314 312 311 308 306 301 297 291 289 290 292 290 289 284 283 282 283 282 281 282 282 282 282 282 282 282 282 282 282
316 315 315 316 315 315 316 316 313 310 304 303 301 295 291 291 292 293 289 286 282 281 282 281 281 281 282 281 282 282 283 282 282 283 283 282 282 282
312 311 311 313 314 313 314 314 312 304 299 295 292 292 293 292 285 285 286 283 282 281 280 280 280 279 281 281 282 282 282 282 282 282 281 281 281 282
312 309 306 306 307 306 306 305 306 298 292 291 291 290 286 285 284 282 282 281 280 279 279 279 279 279 278 280 281 280 280 281 281 280 281 281 281 282
311 305 301 300 299 299 299 296 294 292 292 289 287 286 283 281 281 280 280 280 279 279 279 279 279 279 280 280 279 280 280 281 281 281 281 281 282 282
305 298 294 293 291 290 292 292 290 287 288 287 282 280 280 280 280 280 279 279 279 279 278 278 279 279 280 279 279 279 280 281 281 281 281 281 282 283
297 293 289 289 291 291 290 289 288 284 281 280 280 279 278 278 278 278 278 278 278 277 277 278 279 279 280 279 278 279 281 281 281 281 281 281 282 284
294 292 290 290 289 288 285 282 280 279 280 279 279 278 278 278 278 278 278 277 277 277 277 276 278 278 279 279 279 280 280 280 279 280 280 281 282 283
290 288 287 288 286 280 279 279 279 279 279 278 278 278 278 278 277 277 277 277 277 276 276 276 277 278 279 281 280 280 280 279 280 280 280 281 282 283
289 287 285 282 280 279 279 279 278 278 278 278 277 277 277 277 277 277 277 277 276 276 276 276 277 277 277 278 279 279 279 280 280 281 281 281 281 282
287 284 279 278 278 278 278 278 277 277 277 277 277 277 276 276 276 276 276 276 276 276 276 276 276 276 277 276 277 280 279 278 278 279 281 281 281 281
279 278 278 278 277 278 278 277 277 277 276 276 276 276 276 275 275 275 275 275 275 275 275 275 275 276 276 276 277 279 279 279 280 280 281 281 282 282
277 277 277 277 278 278 277 277 276 276 276 276 276 275 275 275 274 274 274 274 274 274 274 274 274 275 276 277 278 278 279 280 281 281 282 282 282 282
277 277 277 277 277 276 276 275 275 275 275 275 275 275 274 274 274 274 274 273 273 273 273 273 274 275 276 277 277 278 278 280 280 281 281 282 282 283